| time (UTC) | temp F | wind direction | speed knots | gust knots | rain 1hr in | rain 24hr in | rain mn in | humidity % | barometer mb |
| 20260508225121 | 71 | 200 | 6.1 | 8.7 | 0.00 | 0.00 | 0.00 | 50 | 1011.9 |
| 20260508224833 | 71 | 203 | 6.1 | 10.4 | 0.00 | 0.00 | 0.00 | 50 | 1011.9 |
| 20260508224718 | 72 | 176 | 7.0 | 10.4 | 0.00 | 0.00 | 0.00 | 50 | 1011.9 |
| 20260508224645 | 72 | 177 | 7.0 | 10.4 | 0.00 | 0.00 | 0.00 | 50 | 1011.9 |
| 20260508224516 | 72 | 194 | 7.0 | 10.4 | 0.00 | 0.00 | 0.00 | 50 | 1012.0 |
| 20260508224423 | 72 | 174 | 6.1 | 11.3 | 0.00 | 0.00 | 0.00 | 50 | 1012.0 |
| 20260508224330 | 72 | 190 | 5.2 | 11.3 | 0.00 | 0.00 | 0.00 | 50 | 1012.0 |
| 20260508224219 | 72 | 200 | 6.1 | 11.3 | 0.00 | 0.00 | 0.00 | 49 | 1012.0 |
| 20260508224126 | 72 | 196 | 6.1 | 11.3 | 0.00 | 0.00 | 0.00 | 49 | 1012.0 |
| 20260508224018 | 72 | 257 | 7.0 | 11.3 | 0.00 | 0.00 | 0.00 | 50 | 1012.0 |
| 20260508223925 | 72 | 186 | 7.0 | 11.3 | 0.00 | 0.00 | 0.00 | 51 | 1012.0 |
| 20260508223834 | 72 | 180 | 7.8 | 11.3 | 0.00 | 0.00 | 0.00 | 51 | 1012.0 |
| 20260508223722 | 72 | 167 | 7.8 | 11.3 | 0.00 | 0.00 | 0.00 | 51 | 1012.0 |
| 20260508223648 | 72 | 186 | 7.0 | 11.3 | 0.00 | 0.00 | 0.00 | 50 | 1012.0 |
| 20260508223558 | 72 | 186 | 7.0 | 13.0 | 0.00 | 0.00 | 0.00 | 50 | 1012.1 |
| 20260508223312 | 72 | 181 | 6.1 | 9.6 | 0.00 | 0.00 | 0.00 | 51 | 1012.0 |
| 20260508223220 | 72 | 172 | 5.2 | 9.6 | 0.00 | 0.00 | 0.00 | 51 | 1012.0 |
| 20260508223127 | 72 | 184 | 5.2 | 9.6 | 0.00 | 0.00 | 0.00 | 51 | 1012.0 |
| 20260508223014 | 72 | 217 | 5.2 | 10.4 | 0.00 | 0.00 | 0.00 | 51 | 1012.0 |
| 20260508222941 | 72 | 202 | 6.1 | 10.4 | 0.00 | 0.00 | 0.00 | 52 | 1012.0 |
| 20260508222812 | 72 | 221 | 7.0 | 10.4 | 0.00 | 0.00 | 0.00 | 51 | 1012.0 |
| 20260508222720 | 72 | 212 | 7.0 | 10.4 | 0.00 | 0.00 | 0.00 | 51 | 1012.0 |
| 20260508222627 | 72 | 171 | 7.0 | 10.4 | 0.00 | 0.00 | 0.00 | 51 | 1012.0 |
| 20260508222513 | 72 | 213 | 6.1 | 10.4 | 0.00 | 0.00 | 0.00 | 52 | 1012.0 |
| 20260508222421 | 72 | 228 | 5.2 | 10.4 | 0.00 | 0.00 | 0.00 | 52 | 1012.1 |
| 20260508222328 | 72 | 211 | 6.1 | 10.4 | 0.00 | 0.00 | 0.00 | 52 | 1012.1 |
| 20260508222218 | 72 | 213 | 7.0 | 10.4 | 0.00 | 0.00 | 0.00 | 52 | 1012.1 |
| 20260508222145 | 72 | 212 | 7.0 | 10.4 | 0.00 | 0.00 | 0.00 | 51 | 1012.1 |
| 20260508222115 | 72 | 185 | 7.0 | 10.4 | 0.00 | 0.00 | 0.00 | 52 | 1012.1 |
| 20260508221828 | 72 | 212 | 7.8 | 10.4 | 0.00 | 0.00 | 0.00 | 53 | 1011.9 |
| 20260508221718 | 72 | 188 | 7.0 | 10.4 | 0.00 | 0.00 | 0.00 | 52 | 1012.0 |
| 20260508221625 | 72 | 202 | 6.1 | 12.2 | 0.00 | 0.00 | 0.00 | 52 | 1012.0 |
| 20260508221534 | 72 | 205 | 7.0 | 12.2 | 0.00 | 0.00 | 0.00 | 51 | 1012.0 |
| 20260508221421 | 72 | 180 | 7.0 | 12.2 | 0.00 | 0.00 | 0.00 | 52 | 1012.0 |
| 20260508221348 | 72 | 207 | 7.0 | 12.2 | 0.00 | 0.00 | 0.00 | 52 | 1012.1 |
| 20260508221215 | 72 | 178 | 6.1 | 12.2 | 0.00 | 0.00 | 0.00 | 51 | 1012.0 |
| 20260508221122 | 72 | 189 | 6.1 | 12.2 | 0.00 | 0.00 | 0.00 | 51 | 1012.0 |
| 20260508221033 | 72 | 225 | 7.0 | 12.2 | 0.00 | 0.00 | 0.00 | 51 | 1012.2 |
| 20260508220919 | 72 | 223 | 7.8 | 12.2 | 0.00 | 0.00 | 0.00 | 51 | 1012.2 |
| 20260508220847 | 72 | 214 | 7.0 | 12.2 | 0.00 | 0.00 | 0.00 | 51 | 1012.2 |
| 20260508220714 | 72 | 194 | 6.1 | 12.2 | 0.00 | 0.00 | 0.00 | 51 | 1012.2 |
| 20260508220623 | 72 | 226 | 5.2 | 12.2 | 0.00 | 0.00 | 0.00 | 52 | 1012.2 |
| 20260508220557 | 72 | 224 | 6.1 | 12.2 | 0.00 | 0.00 | 0.00 | 52 | 1012.2 |
| 20260508220350 | 72 | 180 | 7.0 | 12.2 | 0.00 | 0.00 | 0.00 | 52 | 1012.1 |
| 20260508220215 | 72 | 167 | 8.7 | 12.2 | 0.00 | 0.00 | 0.00 | 52 | 1012.1 |
| 20260508220121 | 71 | 205 | 7.0 | 13.0 | 0.00 | 0.00 | 0.00 | 52 | 1012.1 |
| 20260508220029 | 71 | 191 | 7.0 | 14.8 | 0.00 | 0.00 | 0.00 | 52 | 1012.1 |
| 20260508215936 | 71 | 192 | 5.2 | 13.0 | 0.00 | 0.00 | 0.00 | 54 | 1012.2 |
| 20260508215823 | 71 | 195 | 6.1 | 13.0 | 0.00 | 0.00 | 0.00 | 52 | 1012.2 |
| 20260508215734 | 71 | 186 | 7.0 | 13.0 | 0.00 | 0.00 | 0.00 | 51 | 1012.1 |
| 20260508215621 | 71 | 202 | 7.8 | 13.0 | 0.00 | 0.00 | 0.00 | 51 | 1012.1 |
| 20260508215529 | 71 | 182 | 7.8 | 13.0 | 0.00 | 0.00 | 0.00 | 51 | 1012.1 |
| 20260508215417 | 71 | 169 | 7.8 | 12.2 | 0.00 | 0.00 | 0.00 | 51 | 1012.1 |
| 20260508215325 | 72 | 199 | 8.7 | 13.9 | 0.00 | 0.00 | 0.00 | 51 | 1012.1 |
| 20260508215216 | 72 | 191 | 7.8 | 12.2 | 0.00 | 0.00 | 0.00 | 51 | 1012.1 |
| 20260508215125 | 72 | 207 | 7.0 | 12.2 | 0.00 | 0.00 | 0.00 | 52 | 1012.1 |
| 20260508215055 | 72 | 194 | 7.0 | 11.3 | 0.00 | 0.00 | 0.00 | 52 | 1012.2 |
| 20260508214829 | 72 | 299 | 7.0 | 12.2 | 0.00 | 0.00 | 0.00 | 52 | 1012.1 |
| 20260508214716 | 72 | 170 | 6.1 | 12.2 | 0.00 | 0.00 | 0.00 | 52 | 1012.1 |
| 20260508214627 | 72 | 188 | 5.2 | 12.2 | 0.00 | 0.00 | 0.00 | 52 | 1012.1 |
| 20260508214514 | 72 | 190 | 4.3 | 12.2 | 0.00 | 0.00 | 0.00 | 52 | 1012.2 |
| 20260508214422 | 72 | 183 | 5.2 | 12.2 | 0.00 | 0.00 | 0.00 | 52 | 1012.2 |
| 20260508214329 | 72 | 147 | 6.1 | 12.2 | 0.00 | 0.00 | 0.00 | 51 | 1012.1 |
| 20260508214215 | 72 | 184 | 7.0 | 12.2 | 0.00 | 0.00 | 0.00 | 51 | 1012.1 |
| 20260508214127 | 72 | 191 | 6.1 | 12.2 | 0.00 | 0.00 | 0.00 | 51 | 1012.1 |
| 20260508214034 | 72 | 197 | 5.2 | 10.4 | 0.00 | 0.00 | 0.00 | 52 | 1012.1 |
| 20260508213941 | 72 | 196 | 5.2 | 9.6 | 0.00 | 0.00 | 0.00 | 51 | 1012.1 |
| 20260508213826 | 72 | 163 | 6.1 | 9.6 | 0.00 | 0.00 | 0.00 | 51 | 1012.1 |
| 20260508213714 | 72 | 182 | 4.3 | 10.4 | 0.00 | 0.00 | 0.00 | 52 | 1012.1 |
| 20260508213621 | 72 | 182 | 4.3 | 6.1 | 0.00 | 0.00 | 0.00 | 52 | 1012.1 |
| 20260508213555 | 72 | 182 | 3.5 | 7.0 | 0.00 | 0.00 | 0.00 | 52 | 1012.1 |
| 20260508213329 | 72 | 236 | 4.3 | 8.7 | 0.00 | 0.00 | 0.00 | 54 | 1012.1 |
| 20260508213236 | 72 | 196 | 4.3 | 8.7 | 0.00 | 0.00 | 0.00 | 52 | 1012.1 |
| 20260508213123 | 72 | 133 | 4.3 | 8.7 | 0.00 | 0.00 | 0.00 | 53 | 1012.1 |
| 20260508213030 | 72 | 160 | 3.5 | 8.7 | 0.00 | 0.00 | 0.00 | 52 | 1012.0 |
| 20260508212921 | 72 | 202 | 2.6 | 8.7 | 0.00 | 0.00 | 0.00 | 51 | 1012.0 |
| 20260508212848 | 72 | 198 | 3.5 | 8.7 | 0.00 | 0.00 | 0.00 | 52 | 1012.0 |
| 20260508212734 | 72 | 161 | 4.3 | 8.7 | 0.00 | 0.00 | 0.00 | 52 | 1011.9 |
| 20260508212619 | 72 | 191 | 4.3 | 8.7 | 0.00 | 0.00 | 0.00 | 52 | 1011.9 |
| 20260508212525 | 72 | 139 | 4.3 | 8.7 | 0.00 | 0.00 | 0.00 | 52 | 1011.9 |
| 20260508212413 | 72 | 186 | 5.2 | 10.4 | 0.00 | 0.00 | 0.00 | 51 | 1011.9 |
| 20260508212320 | 72 | 153 | 5.2 | 10.4 | 0.00 | 0.00 | 0.00 | 51 | 1011.9 |
| 20260508212212 | 72 | 115 | 4.3 | 10.4 | 0.00 | 0.00 | 0.00 | 51 | 1012.0 |
| 20260508212120 | 72 | 126 | 2.6 | 9.6 | 0.00 | 0.00 | 0.00 | 51 | 1012.0 |
| 20260508212051 | 72 | 168 | 3.5 | 9.6 | 0.00 | 0.00 | 0.00 | 51 | 1012.0 |
| 20260508211825 | 72 | 94 | 4.3 | 9.6 | 0.00 | 0.00 | 0.00 | 51 | 1011.9 |
| 20260508211717 | 72 | 195 | 7.0 | 9.6 | 0.00 | 0.00 | 0.00 | 50 | 1012.1 |
| 20260508211625 | 73 | 140 | 7.0 | 9.6 | 0.00 | 0.00 | 0.00 | 51 | 1012.1 |
| 20260508211512 | 73 | 94 | 6.1 | 9.6 | 0.00 | 0.00 | 0.00 | 50 | 1012.2 |
| 20260508211420 | 73 | 130 | 5.2 | 10.4 | 0.00 | 0.00 | 0.00 | 50 | 1012.2 |
| 20260508211326 | 73 | 121 | 4.3 | 9.6 | 0.00 | 0.00 | 0.00 | 50 | 1012.2 |
| 20260508211219 | 73 | 151 | 4.3 | 10.4 | 0.00 | 0.00 | 0.00 | 49 | 1012.1 |
| 20260508211127 | 73 | 157 | 3.5 | 10.4 | 0.00 | 0.00 | 0.00 | 50 | 1012.1 |
| 20260508211015 | 73 | 238 | 4.3 | 10.4 | 0.00 | 0.00 | 0.00 | 52 | 1012.1 |
| 20260508210922 | 72 | 200 | 5.2 | 10.4 | 0.00 | 0.00 | 0.00 | 50 | 1012.1 |
| 20260508210828 | 73 | 200 | 6.1 | 10.4 | 0.00 | 0.00 | 0.00 | 49 | 1012.1 |
| 20260508210716 | 73 | 185 | 6.1 | 10.4 | 0.00 | 0.00 | 0.00 | 49 | 1012.2 |
| 20260508210627 | 73 | 215 | 5.2 | 10.4 | 0.00 | 0.00 | 0.00 | 49 | 1012.2 |
| 20260508210557 | 73 | 209 | 4.3 | 10.4 | 0.00 | 0.00 | 0.00 | 50 | 1012.1 |
| 20260508210330 | 73 | 171 | 4.3 | 7.8 | 0.00 | 0.00 | 0.00 | 49 | 1012.1 |
| 20260508210218 | 73 | 150 | 4.3 | 7.8 | 0.00 | 0.00 | 0.00 | 49 | 1012.1 |
| 20260508210130 | 73 | 193 | 4.3 | 7.8 | 0.00 | 0.00 | 0.00 | 50 | 1012.1 |
| 20260508210037 | 73 | 192 | 5.2 | 7.8 | 0.00 | 0.00 | 0.00 | 49 | 1012.0 |
| 20260508205924 | 73 | 159 | 5.2 | 7.8 | 0.00 | 0.00 | 0.00 | 48 | 1012.0 |
| 20260508205812 | 73 | 192 | 3.5 | 7.8 | 0.00 | 0.00 | 0.00 | 50 | 1012.0 |
| 20260508205719 | 73 | 160 | 3.5 | 7.8 | 0.00 | 0.00 | 0.00 | 49 | 1012.0 |
| 20260508205626 | 72 | 192 | 3.5 | 9.6 | 0.00 | 0.00 | 0.00 | 49 | 1012.0 |
| 20260508205518 | 72 | 200 | 4.3 | 9.6 | 0.00 | 0.00 | 0.00 | 48 | 1012.1 |
| 20260508205425 | 72 | 209 | 4.3 | 9.6 | 0.00 | 0.00 | 0.00 | 48 | 1012.1 |
| 20260508205311 | 73 | 203 | 4.3 | 9.6 | 0.00 | 0.00 | 0.00 | 48 | 1012.1 |
| 20260508205219 | 72 | 232 | 4.3 | 9.6 | 0.00 | 0.00 | 0.00 | 47 | 1012.1 |
| 20260508205126 | 72 | 209 | 5.2 | 9.6 | 0.00 | 0.00 | 0.00 | 47 | 1012.1 |
| 20260508205059 | 72 | 173 | 5.2 | 9.6 | 0.00 | 0.00 | 0.00 | 47 | 1012.0 |
| 20260508204813 | 72 | 186 | 7.0 | 9.6 | 0.00 | 0.00 | 0.00 | 47 | 1012.0 |
| 20260508204720 | 72 | 223 | 7.0 | 9.6 | 0.00 | 0.00 | 0.00 | 46 | 1012.0 |
| 20260508204627 | 72 | 202 | 6.1 | 9.6 | 0.00 | 0.00 | 0.00 | 47 | 1012.0 |
| 20260508204535 | 73 | 212 | 6.1 | 12.2 | 0.00 | 0.00 | 0.00 | 48 | 1012.1 |
| 20260508204425 | 72 | 175 | 4.3 | 12.2 | 0.00 | 0.00 | 0.00 | 47 | 1012.1 |
| 20260508204313 | 72 | 241 | 2.6 | 12.2 | 0.00 | 0.00 | 0.00 | 47 | 1012.1 |
| 20260508204221 | 73 | 230 | 3.5 | 12.2 | 0.00 | 0.00 | 0.00 | 47 | 1012.1 |
| 20260508204128 | 72 | 166 | 6.1 | 12.2 | 0.00 | 0.00 | 0.00 | 48 | 1012.1 |
| 20260508204036 | 72 | 203 | 7.8 | 12.2 | 0.00 | 0.00 | 0.00 | 47 | 1012.1 |
| 20260508203924 | 72 | 209 | 7.8 | 12.2 | 0.00 | 0.00 | 0.00 | 48 | 1012.1 |
| 20260508203816 | 72 | 151 | 6.1 | 10.4 | 0.00 | 0.00 | 0.00 | 48 | 1012.1 |
| 20260508203744 | 72 | 123 | 3.5 | 9.6 | 0.00 | 0.00 | 0.00 | 48 | 1012.1 |
| 20260508203631 | 72 | 142 | 2.6 | 9.6 | 0.00 | 0.00 | 0.00 | 49 | 1012.1 |
| 20260508203601 | 72 | 165 | 3.5 | 9.6 | 0.00 | 0.00 | 0.00 | 48 | 1012.2 |
| 20260508203335 | 72 | 158 | 3.5 | 9.6 | 0.00 | 0.00 | 0.00 | 48 | 1012.1 |
| 20260508203226 | 72 | 144 | 3.5 | 9.6 | 0.00 | 0.00 | 0.00 | 50 | 1012.1 |
| 20260508203113 | 72 | 151 | 2.6 | 9.6 | 0.00 | 0.00 | 0.00 | 47 | 1012.2 |
| 20260508203022 | 72 | 146 | 4.3 | 9.6 | 0.00 | 0.00 | 0.00 | 48 | 1012.2 |
| 20260508202929 | 72 | 132 | 4.3 | 13.0 | 0.00 | 0.00 | 0.00 | 47 | 1012.3 |
| 20260508202838 | 72 | 138 | 6.1 | 13.0 | 0.00 | 0.00 | 0.00 | 47 | 1012.5 |
| 20260508202724 | 72 | 128 | 6.1 | 13.0 | 0.00 | 0.00 | 0.00 | 47 | 1012.5 |
| 20260508202615 | 72 | 135 | 7.0 | 13.0 | 0.00 | 0.00 | 0.00 | 46 | 1012.5 |
| 20260508202522 | 72 | 134 | 6.1 | 13.0 | 0.00 | 0.00 | 0.00 | 45 | 1012.5 |
| 20260508202431 | 72 | 182 | 5.2 | 13.0 | 0.00 | 0.00 | 0.00 | 47 | 1012.5 |
| 20260508202319 | 72 | 111 | 6.1 | 13.0 | 0.00 | 0.00 | 0.00 | 46 | 1012.5 |
| 20260508202246 | 72 | 198 | 6.1 | 13.0 | 0.00 | 0.00 | 0.00 | 45 | 1012.5 |
| 20260508202113 | 72 | 180 | 5.2 | 12.2 | 0.00 | 0.00 | 0.00 | 46 | 1012.7 |
| 20260508202048 | 72 | 185 | 5.2 | 12.2 | 0.00 | 0.00 | 0.00 | 46 | 1012.7 |
| 20260508201842 | 72 | 116 | 4.3 | 12.2 | 0.00 | 0.00 | 0.00 | 45 | 1013.0 |
| 20260508201729 | 72 | 140 | 4.3 | 12.2 | 0.00 | 0.00 | 0.00 | 45 | 1013.0 |
| 20260508201638 | 72 | 126 | 5.2 | 12.2 | 0.00 | 0.00 | 0.00 | 44 | 1013.1 |
| 20260508201525 | 73 | 115 | 5.2 | 12.2 | 0.00 | 0.00 | 0.00 | 45 | 1013.1 |
| 20260508201416 | 73 | 138 | 5.2 | 12.2 | 0.00 | 0.00 | 0.00 | 46 | 1013.1 |
| 20260508201325 | 73 | 119 | 5.2 | 12.2 | 0.00 | 0.00 | 0.00 | 44 | 1013.1 |
| 20260508201213 | 73 | 142 | 6.1 | 10.4 | 0.00 | 0.00 | 0.00 | 45 | 1013.1 |
| 20260508201119 | 73 | 146 | 6.1 | 10.4 | 0.00 | 0.00 | 0.00 | 44 | 1013.1 |
| 20260508201026 | 73 | 144 | 5.2 | 10.4 | 0.00 | 0.00 | 0.00 | 43 | 1013.1 |
| 20260508200933 | 73 | 191 | 6.1 | 10.4 | 0.00 | 0.00 | 0.00 | 41 | 1013.1 |
| 20260508200843 | 73 | 150 | 7.0 | 10.4 | 0.00 | 0.00 | 0.00 | 42 | 1013.1 |
| 20260508200728 | 73 | 184 | 5.2 | 10.4 | 0.00 | 0.00 | 0.00 | 42 | 1013.1 |
| 20260508200616 | 72 | 184 | 3.5 | 10.4 | 0.00 | 0.00 | 0.00 | 44 | 1013.0 |
| 20260508200546 | 72 | 190 | 3.5 | 10.4 | 0.00 | 0.00 | 0.00 | 44 | 1013.0 |
| 20260508200320 | 72 | 190 | 6.1 | 10.4 | 0.00 | 0.00 | 0.00 | 45 | 1012.7 |
| 20260508200211 | 72 | 156 | 6.1 | 10.4 | 0.00 | 0.00 | 0.00 | 45 | 1012.7 |
| 20260508200120 | 72 | 176 | 6.1 | 10.4 | 0.00 | 0.00 | 0.00 | 45 | 1012.7 |
| 20260508200027 | 72 | 207 | 4.3 | 8.7 | 0.00 | 0.00 | 0.00 | 45 | 1012.7 |
| 20260508195914 | 72 | 161 | 3.5 | 8.7 | 0.00 | 0.00 | 0.00 | 44 | 1012.7 |
| 20260508195822 | 72 | 158 | 2.6 | 8.7 | 0.00 | 0.00 | 0.00 | 44 | 1012.7 |
| 20260508195734 | 72 | 200 | 2.6 | 8.7 | 0.00 | 0.00 | 0.00 | 45 | 1012.8 |
| 20260508195621 | 72 | 206 | 3.5 | 8.7 | 0.00 | 0.00 | 0.00 | 46 | 1012.8 |
| 20260508195528 | 72 | 113 | 4.3 | 8.7 | 0.00 | 0.00 | 0.00 | 44 | 1012.7 |
| 20260508195417 | 72 | 140 | 4.3 | 8.7 | 0.00 | 0.00 | 0.00 | 45 | 1012.8 |
| 20260508195325 | 72 | 135 | 4.3 | 8.7 | 0.00 | 0.00 | 0.00 | 44 | 1012.8 |
| 20260508195212 | 72 | 146 | 5.2 | 8.7 | 0.00 | 0.00 | 0.00 | 47 | 1012.8 |
| 20260508195123 | 72 | 165 | 5.2 | 8.7 | 0.00 | 0.00 | 0.00 | 47 | 1012.8 |
| 20260508195057 | 72 | 136 | 5.2 | 7.8 | 0.00 | 0.00 | 0.00 | 47 | 1012.8 |
| 20260508194811 | 72 | 176 | 4.3 | 7.8 | 0.00 | 0.00 | 0.00 | 46 | 1012.8 |
| 20260508194719 | 72 | 229 | 4.3 | 7.8 | 0.00 | 0.00 | 0.00 | 45 | 1012.8 |
| 20260508194630 | 72 | 177 | 4.3 | 7.8 | 0.00 | 0.00 | 0.00 | 46 | 1012.8 |
| 20260508194517 | 72 | 182 | 5.2 | 7.8 | 0.00 | 0.00 | 0.00 | 46 | 1012.7 |
| 20260508194425 | 72 | 159 | 5.2 | 7.8 | 0.00 | 0.00 | 0.00 | 46 | 1012.7 |
| 20260508194313 | 72 | 115 | 3.5 | 7.8 | 0.00 | 0.00 | 0.00 | 45 | 1012.6 |
| 20260508194241 | 72 | 161 | 2.6 | 7.8 | 0.00 | 0.00 | 0.00 | 45 | 1012.6 |
| 20260508194126 | 72 | 67 | 2.6 | 7.8 | 0.00 | 0.00 | 0.00 | 46 | 1012.6 |
| 20260508194017 | 71 | 135 | 4.3 | 7.8 | 0.00 | 0.00 | 0.00 | 46 | 1012.7 |
| 20260508193925 | 71 | 218 | 5.2 | 7.8 | 0.00 | 0.00 | 0.00 | 48 | 1012.7 |
| 20260508193812 | 71 | 122 | 5.2 | 7.8 | 0.00 | 0.00 | 0.00 | 48 | 1012.8 |
| 20260508193719 | 71 | 103 | 4.3 | 7.8 | 0.00 | 0.00 | 0.00 | 48 | 1012.8 |
| 20260508193646 | 71 | 175 | 4.3 | 7.8 | 0.00 | 0.00 | 0.00 | 48 | 1012.8 |
| 20260508193621 | 71 | 147 | 4.3 | 7.8 | 0.00 | 0.00 | 0.00 | 48 | 1012.9 |
| 20260508193313 | 71 | 163 | 4.3 | 7.8 | 0.00 | 0.00 | 0.00 | 49 | 1013.0 |
| 20260508193241 | 71 | 129 | 4.3 | 7.8 | 0.00 | 0.00 | 0.00 | 46 | 1013.0 |
| 20260508193129 | 70 | 122 | 4.3 | 7.8 | 0.00 | 0.00 | 0.00 | 46 | 1013.0 |
| 20260508193016 | 70 | 209 | 4.3 | 7.8 | 0.00 | 0.00 | 0.00 | 46 | 1013.0 |
| 20260508192945 | 70 | 140 | 4.3 | 7.8 | 0.00 | 0.00 | 0.00 | 46 | 1013.0 |
| 20260508192815 | 71 | 171 | 3.5 | 7.0 | 0.00 | 0.00 | 0.00 | 48 | 1013.0 |
| 20260508192744 | 71 | 119 | 2.6 | 7.8 | 0.00 | 0.00 | 0.00 | 48 | 1013.0 |
| 20260508192629 | 70 | 187 | 3.5 | 7.8 | 0.00 | 0.00 | 0.00 | 47 | 1013.0 |
| 20260508192536 | 71 | 121 | 3.5 | 7.8 | 0.00 | 0.00 | 0.00 | 48 | 1013.1 |
| 20260508192423 | 71 | 119 | 4.3 | 7.8 | 0.00 | 0.00 | 0.00 | 48 | 1013.1 |
| 20260508192311 | 71 | 102 | 4.3 | 7.8 | 0.00 | 0.00 | 0.00 | 46 | 1013.1 |
| 20260508192240 | 71 | 144 | 5.2 | 9.6 | 0.00 | 0.00 | 0.00 | 48 | 1013.1 |
| 20260508192149 | 71 | 148 | 5.2 | 9.6 | 0.00 | 0.00 | 0.00 | 48 | 1013.1 |
| 20260508192059 | 71 | 95 | 4.3 | 9.6 | 0.00 | 0.00 | 0.00 | 46 | 1013.1 |
| 20260508191811 | 71 | 163 | 3.5 | 9.6 | 0.00 | 0.00 | 0.00 | 47 | 1013.1 |
| 20260508191718 | 71 | 175 | 3.5 | 9.6 | 0.00 | 0.00 | 0.00 | 46 | 1013.2 |
| 20260508191625 | 71 | 191 | 3.5 | 9.6 | 0.00 | 0.00 | 0.00 | 45 | 1013.2 |
| 20260508191516 | 71 | 214 | 5.2 | 9.6 | 0.00 | 0.00 | 0.00 | 45 | 1013.3 |
| 20260508191424 | 71 | 181 | 6.1 | 9.6 | 0.00 | 0.00 | 0.00 | 46 | 1013.3 |
| 20260508191311 | 71 | 255 | 4.3 | 8.7 | 0.00 | 0.00 | 0.00 | 46 | 1013.3 |
| 20260508191218 | 71 | 163 | 4.3 | 8.7 | 0.00 | 0.00 | 0.00 | 48 | 1013.3 |
| 20260508191126 | 71 | 116 | 4.3 | 8.7 | 0.00 | 0.00 | 0.00 | 48 | 1013.3 |
| 20260508191018 | 71 | 175 | 3.5 | 8.7 | 0.00 | 0.00 | 0.00 | 47 | 1013.4 |
| 20260508190925 | 71 | 179 | 2.6 | 8.7 | 0.00 | 0.00 | 0.00 | 48 | 1013.4 |
| 20260508190813 | 71 | 142 | 3.5 | 8.7 | 0.00 | 0.00 | 0.00 | 48 | 1013.2 |
| 20260508190720 | 71 | 167 | 4.3 | 8.7 | 0.00 | 0.00 | 0.00 | 47 | 1013.3 |
| 20260508190628 | 71 | 154 | 5.2 | 8.7 | 0.00 | 0.00 | 0.00 | 48 | 1013.3 |
| 20260508190603 | 71 | 143 | 5.2 | 9.6 | 0.00 | 0.00 | 0.00 | 48 | 1013.3 |
| 20260508190336 | 71 | 178 | 4.3 | 9.6 | 0.00 | 0.00 | 0.00 | 49 | 1013.5 |
| 20260508190222 | 71 | 116 | 3.5 | 8.7 | 0.00 | 0.00 | 0.00 | 48 | 1013.5 |
| 20260508190149 | 71 | 167 | 3.5 | 8.7 | 0.00 | 0.00 | 0.00 | 47 | 1013.4 |
| 20260508190015 | 71 | 140 | 3.5 | 9.6 | 0.00 | 0.00 | 0.00 | 47 | 1013.5 |
| 20260508185922 | 71 | 160 | 4.3 | 9.6 | 0.00 | 0.00 | 0.00 | 48 | 1013.5 |
| 20260508185812 | 71 | 138 | 2.6 | 9.6 | 0.00 | 0.00 | 0.00 | 48 | 1013.6 |
| 20260508185740 | 71 | 151 | 2.6 | 9.6 | 0.00 | 0.00 | 0.00 | 50 | 1013.7 |
| 20260508185625 | 70 | 120 | 3.5 | 9.6 | 0.00 | 0.00 | 0.00 | 49 | 1013.7 |
| 20260508185514 | 70 | 184 | 5.2 | 9.6 | 0.00 | 0.00 | 0.00 | 47 | 1013.8 |
| 20260508185422 | 70 | 190 | 5.2 | 9.6 | 0.00 | 0.00 | 0.00 | 46 | 1013.8 |
| 20260508185313 | 70 | 188 | 6.1 | 9.6 | 0.00 | 0.00 | 0.00 | 47 | 1013.7 |
| 20260508185221 | 70 | 135 | 5.2 | 9.6 | 0.00 | 0.00 | 0.00 | 48 | 1013.7 |
| 20260508185129 | 70 | 195 | 4.3 | 8.7 | 0.00 | 0.00 | 0.00 | 48 | 1013.7 |
| 20260508185100 | 70 | 171 | 3.5 | 8.7 | 0.00 | 0.00 | 0.00 | 49 | 1013.7 |
| 20260508184814 | 70 | 145 | 4.3 | 8.7 | 0.00 | 0.00 | 0.00 | 48 | 1013.6 |
| 20260508184746 | 70 | 153 | 5.2 | 8.7 | 0.00 | 0.00 | 0.00 | 48 | 1013.6 |
| 20260508184633 | 70 | 129 | 5.2 | 10.4 | 0.00 | 0.00 | 0.00 | 47 | 1013.6 |
| 20260508184519 | 70 | 121 | 3.5 | 10.4 | 0.00 | 0.00 | 0.00 | 47 | 1013.5 |
| 20260508184426 | 70 | 147 | 1.7 | 10.4 | 0.00 | 0.00 | 0.00 | 45 | 1013.5 |
| 20260508184313 | 70 | 56 | 1.7 | 10.4 | 0.00 | 0.00 | 0.00 | 45 | 1013.7 |
| 20260508184240 | 70 | 96 | 3.5 | 10.4 | 0.00 | 0.00 | 0.00 | 45 | 1013.7 |
| 20260508184127 | 70 | 157 | 4.3 | 10.4 | 0.00 | 0.00 | 0.00 | 43 | 1013.7 |
| 20260508184018 | 70 | 193 | 5.2 | 10.4 | 0.00 | 0.00 | 0.00 | 43 | 1013.7 |
| 20260508183925 | 70 | 192 | 5.2 | 10.4 | 0.00 | 0.00 | 0.00 | 47 | 1013.7 |
| 20260508183833 | 70 | 134 | 7.0 | 10.4 | 0.00 | 0.00 | 0.00 | 46 | 1013.7 |
| 20260508183720 | 70 | 136 | 5.2 | 11.3 | 0.00 | 0.00 | 0.00 | 47 | 1013.6 |
| 20260508183647 | 70 | 139 | 3.5 | 11.3 | 0.00 | 0.00 | 0.00 | 47 | 1013.6 |
| 20260508183623 | 70 | 136 | 2.6 | 8.7 | 0.00 | 0.00 | 0.00 | 47 | 1013.7 |
| 20260508183316 | 70 | 133 | 4.3 | 8.7 | 0.00 | 0.00 | 0.00 | 46 | 1013.9 |
| 20260508183224 | 70 | 120 | 5.2 | 8.7 | 0.00 | 0.00 | 0.00 | 47 | 1013.9 |
| 20260508183131 | 70 | 131 | 5.2 | 8.7 | 0.00 | 0.00 | 0.00 | 47 | 1013.9 |
| 20260508183019 | 70 | 120 | 3.5 | 7.0 | 0.00 | 0.00 | 0.00 | 47 | 1013.9 |
| 20260508182929 | 70 | 86 | 3.5 | 7.0 | 0.00 | 0.00 | 0.00 | 47 | 1013.9 |
| 20260508182817 | 70 | 121 | 3.5 | 7.0 | 0.00 | 0.00 | 0.00 | 47 | 1013.9 |
| 20260508182725 | 70 | 117 | 3.5 | 7.8 | 0.00 | 0.00 | 0.00 | 48 | 1013.9 |
| 20260508182612 | 70 | 92 | 3.5 | 8.7 | 0.00 | 0.00 | 0.00 | 47 | 1013.9 |
| 20260508182519 | 70 | 76 | 3.5 | 8.7 | 0.00 | 0.00 | 0.00 | 46 | 1013.9 |
| 20260508182446 | 70 | 120 | 3.5 | 8.7 | 0.00 | 0.00 | 0.00 | 46 | 1013.9 |
| 20260508182315 | 70 | 144 | 4.3 | 8.7 | 0.00 | 0.00 | 0.00 | 46 | 1013.9 |
| 20260508182223 | 70 | 115 | 5.2 | 8.7 | 0.00 | 0.00 | 0.00 | 47 | 1013.9 |
| 20260508182130 | 70 | 113 | 5.2 | 9.6 | 0.00 | 0.00 | 0.00 | 46 | 1013.9 |
| 20260508182100 | 70 | 117 | 4.3 | 9.6 | 0.00 | 0.00 | 0.00 | 47 | 1013.8 |
| 20260508181818 | 70 | 46 | 3.5 | 9.6 | 0.00 | 0.00 | 0.00 | 45 | 1014.0 |
| 20260508181725 | 70 | 124 | 3.5 | 9.6 | 0.00 | 0.00 | 0.00 | 45 | 1014.0 |
| 20260508181612 | 70 | 120 | 3.5 | 9.6 | 0.00 | 0.00 | 0.00 | 46 | 1014.2 |
| 20260508181519 | 70 | 81 | 3.5 | 9.6 | 0.00 | 0.00 | 0.00 | 45 | 1014.3 |
| 20260508181427 | 70 | 151 | 4.3 | 9.6 | 0.00 | 0.00 | 0.00 | 46 | 1014.3 |
| 20260508181336 | 70 | 99 | 5.2 | 9.6 | 0.00 | 0.00 | 0.00 | 45 | 1014.4 |
| 20260508181228 | 70 | 148 | 6.1 | 9.6 | 0.00 | 0.00 | 0.00 | 45 | 1014.4 |
| 20260508181136 | 70 | 90 | 4.3 | 9.6 | 0.00 | 0.00 | 0.00 | 45 | 1014.4 |
| 20260508181021 | 70 | 127 | 3.5 | 8.7 | 0.00 | 0.00 | 0.00 | 46 | 1014.4 |
| 20260508180929 | 70 | 108 | 4.3 | 8.7 | 0.00 | 0.00 | 0.00 | 46 | 1014.5 |
| 20260508180817 | 70 | 110 | 5.2 | 9.6 | 0.00 | 0.00 | 0.00 | 45 | 1014.5 |
| 20260508180724 | 70 | 141 | 5.2 | 10.4 | 0.00 | 0.00 | 0.00 | 45 | 1014.5 |
| 20260508180617 | 70 | 137 | 3.5 | 10.4 | 0.00 | 0.00 | 0.00 | 43 | 1014.6 |
| 20260508180547 | 70 | 93 | 4.3 | 10.4 | 0.00 | 0.00 | 0.00 | 44 | 1014.6 |
| 20260508180340 | 70 | 69 | 3.5 | 10.4 | 0.00 | 0.00 | 0.00 | 46 | 1014.6 |
| 20260508180228 | 70 | 178 | 4.3 | 10.4 | 0.00 | 0.00 | 0.00 | 43 | 1014.6 |
| 20260508180115 | 70 | 147 | 5.2 | 10.4 | 0.00 | 0.00 | 0.00 | 44 | 1014.7 |
| 20260508180027 | 70 | 119 | 6.1 | 10.4 | 0.00 | 0.00 | 0.00 | 43 | 1014.7 |
| 20260508175936 | 70 | 155 | 5.2 | 10.4 | 0.00 | 0.00 | 0.00 | 44 | 1014.6 |
| 20260508175823 | 70 | 124 | 3.5 | 8.7 | 0.00 | 0.00 | 0.00 | 44 | 1014.6 |
| 20260508175750 | 70 | 88 | 2.6 | 8.7 | 0.00 | 0.00 | 0.00 | 41 | 1014.7 |
| 20260508175615 | 70 | 96 | 3.5 | 9.6 | 0.00 | 0.00 | 0.00 | 43 | 1014.6 |
| 20260508175524 | 70 | 105 | 3.5 | 9.6 | 0.00 | 0.00 | 0.00 | 41 | 1014.6 |
| 20260508175416 | 70 | 127 | 4.3 | 9.6 | 0.00 | 0.00 | 0.00 | 42 | 1014.7 |
| 20260508175323 | 70 | 131 | 5.2 | 9.6 | 0.00 | 0.00 | 0.00 | 42 | 1014.7 |
| 20260508175211 | 71 | 108 | 3.5 | 9.6 | 0.00 | 0.00 | 0.00 | 42 | 1014.7 |
| 20260508175119 | 71 | 107 | 3.5 | 9.6 | 0.00 | 0.00 | 0.00 | 41 | 1014.8 |
| 20260508175049 | 71 | 118 | 4.3 | 9.6 | 0.00 | 0.00 | 0.00 | 41 | 1014.8 |
| 20260508174828 | 71 | 122 | 6.1 | 9.6 | 0.00 | 0.00 | 0.00 | 42 | 1014.9 |
| 20260508174714 | 71 | 106 | 4.3 | 9.6 | 0.00 | 0.00 | 0.00 | 43 | 1014.9 |
| 20260508174622 | 71 | 155 | 2.6 | 7.0 | 0.00 | 0.00 | 0.00 | 43 | 1014.9 |
| 20260508174530 | 71 | 92 | 1.7 | 4.3 | 0.00 | 0.00 | 0.00 | 43 | 1014.9 |
| 20260508174417 | 71 | 217 | 1.7 | 4.3 | 0.00 | 0.00 | 0.00 | 43 | 1015.0 |
| 20260508174328 | 71 | 350 | 1.7 | 4.3 | 0.00 | 0.00 | 0.00 | 43 | 1015.0 |
| 20260508174215 | 70 | 326 | 1.7 | 4.3 | 0.00 | 0.00 | 0.00 | 44 | 1014.9 |
| 20260508174122 | 70 | 54 | 2.6 | 7.8 | 0.00 | 0.00 | 0.00 | 44 | 1014.9 |
| 20260508174030 | 70 | 49 | 1.7 | 7.8 | 0.00 | 0.00 | 0.00 | 44 | 1014.9 |
| 20260508173917 | 70 | 80 | 1.7 | 8.7 | 0.00 | 0.00 | 0.00 | 44 | 1015.0 |
| 20260508173824 | 70 | 63 | 1.7 | 8.7 | 0.00 | 0.00 | 0.00 | 43 | 1015.0 |
| 20260508173716 | 70 | 86 | 2.6 | 9.6 | 0.00 | 0.00 | 0.00 | 46 | 1015.1 |
| 20260508173644 | 70 | 40 | 2.6 | 9.6 | 0.00 | 0.00 | 0.00 | 44 | 1015.1 |
| 20260508173614 | 70 | 72 | 3.5 | 9.6 | 0.00 | 0.00 | 0.00 | 44 | 1015.0 |
| 20260508173326 | 70 | 42 | 4.3 | 9.6 | 0.00 | 0.00 | 0.00 | 43 | 1015.2 |
| 20260508173217 | 70 | 112 | 6.1 | 9.6 | 0.00 | 0.00 | 0.00 | 45 | 1015.2 |
| 20260508173125 | 70 | 144 | 7.0 | 9.6 | 0.00 | 0.00 | 0.00 | 43 | 1015.2 |
| 20260508173013 | 70 | 142 | 7.0 | 9.6 | 0.00 | 0.00 | 0.00 | 44 | 1015.2 |
| 20260508172920 | 70 | 120 | 6.1 | 9.6 | 0.00 | 0.00 | 0.00 | 45 | 1015.3 |
| 20260508172827 | 70 | 147 | 3.5 | 7.8 | 0.00 | 0.00 | 0.00 | 45 | 1015.3 |
| 20260508172715 | 70 | 147 | 2.6 | 9.6 | 0.00 | 0.00 | 0.00 | 44 | 1015.2 |
| 20260508172625 | 70 | 25 | 1.7 | 9.6 | 0.00 | 0.00 | 0.00 | 43 | 1015.2 |
| 20260508172513 | 70 | 319 | 2.6 | 9.6 | 0.00 | 0.00 | 0.00 | 41 | 1015.3 |
| 20260508172422 | 70 | 288 | 2.6 | 9.6 | 0.00 | 0.00 | 0.00 | 42 | 1015.3 |
| 20260508172329 | 70 | 232 | 2.6 | 9.6 | 0.00 | 0.00 | 0.00 | 44 | 1015.2 |
| 20260508172237 | 70 | 263 | 4.3 | 9.6 | 0.00 | 0.00 | 0.00 | 45 | 1015.2 |
| 20260508172124 | 70 | 271 | 5.2 | 9.6 | 0.00 | 0.00 | 0.00 | 42 | 1015.2 |
| 20260508172059 | 70 | 302 | 5.2 | 9.6 | 0.00 | 0.00 | 0.00 | 42 | 1015.2 |
| 20260508171813 | 70 | 205 | 3.5 | 9.6 | 0.00 | 0.00 | 0.00 | 43 | 1015.4 |
| 20260508171719 | 69 | 215 | 2.6 | 9.6 | 0.00 | 0.00 | 0.00 | 43 | 1015.5 |
| 20260508171626 | 70 | 100 | 2.6 | 9.6 | 0.00 | 0.00 | 0.00 | 44 | 1015.5 |
| 20260508171517 | 69 | 188 | 4.3 | 9.6 | 0.00 | 0.00 | 0.00 | 43 | 1015.7 |
| 20260508171445 | 69 | 167 | 4.3 | 9.6 | 0.00 | 0.00 | 0.00 | 43 | 1015.7 |
| 20260508171311 | 69 | 174 | 4.3 | 10.4 | 0.00 | 0.00 | 0.00 | 43 | 1015.7 |
| 20260508171218 | 69 | 147 | 4.3 | 8.7 | 0.00 | 0.00 | 0.00 | 43 | 1015.6 |
| 20260508171127 | 69 | 188 | 4.3 | 8.7 | 0.00 | 0.00 | 0.00 | 43 | 1015.6 |
| 20260508171014 | 69 | 189 | 3.5 | 10.4 | 0.00 | 0.00 | 0.00 | 43 | 1015.6 |
| 20260508170926 | 69 | 197 | 3.5 | 12.2 | 0.00 | 0.00 | 0.00 | 44 | 1015.6 |
| 20260508170813 | 69 | 190 | 4.3 | 12.2 | 0.00 | 0.00 | 0.00 | 44 | 1015.8 |
| 20260508170721 | 69 | 167 | 5.2 | 12.2 | 0.00 | 0.00 | 0.00 | 45 | 1015.8 |
| 20260508170629 | 69 | 193 | 4.3 | 12.2 | 0.00 | 0.00 | 0.00 | 45 | 1015.6 |
| 20260508170559 | 69 | 242 | 4.3 | 12.2 | 0.00 | 0.00 | 0.00 | 44 | 1015.8 |
| 20260508170316 | 70 | 188 | 5.2 | 12.2 | 0.00 | 0.00 | 0.00 | 44 | 1015.7 |
| 20260508170225 | 70 | 177 | 7.8 | 12.2 | 0.00 | 0.00 | 0.00 | 44 | 1015.7 |
| 20260508170112 | 70 | 144 | 7.8 | 12.2 | 0.00 | 0.00 | 0.00 | 45 | 1015.9 |
| 20260508170020 | 70 | 138 | 6.1 | 10.4 | 0.00 | 0.00 | 0.00 | 45 | 1016.0 |
| 20260508165928 | 70 | 123 | 5.2 | 10.4 | 0.00 | 0.00 | 0.00 | 46 | 1016.0 |
| 20260508165818 | 70 | 178 | 6.1 | 10.4 | 0.00 | 0.00 | 0.00 | 45 | 1015.9 |
| 20260508165725 | 69 | 184 | 7.0 | 10.4 | 0.00 | 0.00 | 0.00 | 46 | 1015.9 |
| 20260508165612 | 69 | 158 | 7.0 | 10.4 | 0.00 | 0.00 | 0.00 | 48 | 1015.9 |
| 20260508165519 | 69 | 169 | 7.0 | 10.4 | 0.00 | 0.00 | 0.00 | 47 | 1016.0 |
| 20260508165427 | 69 | 143 | 6.1 | 10.4 | 0.00 | 0.00 | 0.00 | 47 | 1016.0 |
| 20260508165320 | 69 | 215 | 4.3 | 10.4 | 0.00 | 0.00 | 0.00 | 46 | 1015.9 |
| 20260508165247 | 69 | 184 | 4.3 | 10.4 | 0.00 | 0.00 | 0.00 | 45 | 1015.9 |
| 20260508165134 | 69 | 207 | 4.3 | 10.4 | 0.00 | 0.00 | 0.00 | 46 | 1015.9 |
| 20260508165104 | 69 | 202 | 4.3 | 10.4 | 0.00 | 0.00 | 0.00 | 45 | 1015.9 |
| 20260508164817 | 69 | 209 | 6.1 | 10.4 | 0.00 | 0.00 | 0.00 | 46 | 1015.8 |
| 20260508164729 | 69 | 198 | 7.0 | 10.4 | 0.00 | 0.00 | 0.00 | 45 | 1015.8 |
| 20260508164614 | 69 | 182 | 7.0 | 10.4 | 0.00 | 0.00 | 0.00 | 48 | 1015.7 |
| 20260508164522 | 69 | 182 | 4.3 | 8.7 | 0.00 | 0.00 | 0.00 | 46 | 1015.7 |
| 20260508164449 | 69 | 191 | 2.6 | 8.7 | 0.00 | 0.00 | 0.00 | 45 | 1015.7 |
| 20260508164316 | 69 | 66 | 3.5 | 8.7 | 0.00 | 0.00 | 0.00 | 45 | 1015.9 |
| 20260508164244 | 69 | 69 | 4.3 | 8.7 | 0.00 | 0.00 | 0.00 | 45 | 1015.9 |
| 20260508164115 | 69 | 114 | 3.5 | 8.7 | 0.00 | 0.00 | 0.00 | 44 | 1015.9 |
| 20260508164022 | 69 | 140 | 2.6 | 8.7 | 0.00 | 0.00 | 0.00 | 45 | 1015.9 |
| 20260508163929 | 69 | 142 | 1.7 | 7.8 | 0.00 | 0.00 | 0.00 | 46 | 1016.0 |
| 20260508163817 | 69 | 52 | 3.5 | 7.8 | 0.00 | 0.00 | 0.00 | 47 | 1015.9 |
| 20260508163725 | 69 | 5 | 4.3 | 7.8 | 0.00 | 0.00 | 0.00 | 46 | 1015.9 |
| 20260508163614 | 69 | 24 | 5.2 | 7.8 | 0.00 | 0.00 | 0.00 | 46 | 1016.0 |
| 20260508163548 | 68 | 355 | 5.2 | 7.8 | 0.00 | 0.00 | 0.00 | 48 | 1016.0 |
| 20260508163321 | 68 | 71 | 3.5 | 10.4 | 0.00 | 0.00 | 0.00 | 48 | 1016.0 |
| 20260508163227 | 68 | 148 | 2.6 | 10.4 | 0.00 | 0.00 | 0.00 | 47 | 1015.9 |
| 20260508163115 | 68 | 57 | 3.5 | 10.4 | 0.00 | 0.00 | 0.00 | 46 | 1015.9 |
| 20260508163028 | 68 | 115 | 3.5 | 10.4 | 0.00 | 0.00 | 0.00 | 46 | 1015.9 |
| 20260508162916 | 68 | 180 | 3.5 | 10.4 | 0.00 | 0.00 | 0.00 | 46 | 1015.8 |
| 20260508162824 | 68 | 167 | 4.3 | 10.4 | 0.00 | 0.00 | 0.00 | 47 | 1015.8 |
| 20260508162712 | 68 | 133 | 6.1 | 10.4 | 0.00 | 0.00 | 0.00 | 47 | 1015.9 |
| 20260508162619 | 68 | 148 | 6.1 | 10.4 | 0.00 | 0.00 | 0.00 | 47 | 1015.9 |
| 20260508162526 | 68 | 170 | 6.1 | 13.0 | 0.00 | 0.00 | 0.00 | 47 | 1015.9 |
| 20260508162438 | 68 | 154 | 5.2 | 13.0 | 0.00 | 0.00 | 0.00 | 47 | 1015.9 |
| 20260508162324 | 68 | 158 | 4.3 | 13.0 | 0.00 | 0.00 | 0.00 | 46 | 1015.9 |
| 20260508162212 | 68 | 238 | 6.1 | 13.0 | 0.00 | 0.00 | 0.00 | 46 | 1015.9 |
| 20260508162120 | 68 | 192 | 7.0 | 13.0 | 0.00 | 0.00 | 0.00 | 47 | 1015.9 |
| 20260508162054 | 68 | 203 | 7.0 | 13.0 | 0.00 | 0.00 | 0.00 | 46 | 1015.9 |
| 20260508161829 | 69 | 143 | 7.8 | 13.0 | 0.00 | 0.00 | 0.00 | 47 | 1016.0 |
| 20260508161716 | 69 | 148 | 5.2 | 13.0 | 0.00 | 0.00 | 0.00 | 48 | 1016.1 |
| 20260508161623 | 69 | 159 | 2.6 | 10.4 | 0.00 | 0.00 | 0.00 | 50 | 1016.1 |
| 20260508161530 | 68 | 247 | 2.6 | 10.4 | 0.00 | 0.00 | 0.00 | 47 | 1016.2 |
| 20260508161418 | 68 | 205 | 2.6 | 10.4 | 0.00 | 0.00 | 0.00 | 46 | 1016.1 |
| 20260508161329 | 69 | 225 | 2.6 | 10.4 | 0.00 | 0.00 | 0.00 | 45 | 1016.1 |
| 20260508161217 | 69 | 140 | 5.2 | 10.4 | 0.00 | 0.00 | 0.00 | 46 | 1016.2 |
| 20260508161145 | 69 | 141 | 7.0 | 10.4 | 0.00 | 0.00 | 0.00 | 48 | 1016.2 |
| 20260508161012 | 68 | 133 | 6.1 | 9.6 | 0.00 | 0.00 | 0.00 | 49 | 1016.2 |
| 20260508160920 | 68 | 108 | 4.3 | 9.6 | 0.00 | 0.00 | 0.00 | 47 | 1016.2 |
| 20260508160827 | 68 | 228 | 3.5 | 9.6 | 0.00 | 0.00 | 0.00 | 48 | 1016.2 |
| 20260508160718 | 69 | 153 | 4.3 | 9.6 | 0.00 | 0.00 | 0.00 | 48 | 1016.1 |
| 20260508160645 | 69 | 154 | 5.2 | 9.6 | 0.00 | 0.00 | 0.00 | 46 | 1016.1 |
| 20260508160615 | 69 | 211 | 5.2 | 10.4 | 0.00 | 0.00 | 0.00 | 47 | 1016.1 |
| 20260508160329 | 69 | 146 | 4.3 | 10.4 | 0.00 | 0.00 | 0.00 | 47 | 1016.2 |
| 20260508160222 | 69 | 120 | 5.2 | 10.4 | 0.00 | 0.00 | 0.00 | 47 | 1016.2 |
| 20260508160129 | 69 | 130 | 5.2 | 10.4 | 0.00 | 0.00 | 0.00 | 46 | 1016.3 |
| 20260508160017 | 69 | 106 | 6.1 | 10.4 | 0.00 | 0.00 | 0.00 | 48 | 1016.4 |
| 20260508155943 | 69 | 76 | 6.1 | 10.4 | 0.00 | 0.00 | 0.00 | 49 | 1016.4 |
| 20260508155829 | 68 | 109 | 5.2 | 10.4 | 0.00 | 0.00 | 0.00 | 48 | 1016.3 |
| 20260508155717 | 68 | 113 | 5.2 | 10.4 | 0.00 | 0.00 | 0.00 | 49 | 1016.4 |
| 20260508155629 | 68 | 136 | 3.5 | 9.6 | 0.00 | 0.00 | 0.00 | 49 | 1016.4 |
| 20260508155515 | 68 | 153 | 3.5 | 9.6 | 0.00 | 0.00 | 0.00 | 49 | 1016.5 |
| 20260508155442 | 68 | 175 | 5.2 | 9.6 | 0.00 | 0.00 | 0.00 | 48 | 1016.5 |
| 20260508155329 | 68 | 130 | 5.2 | 9.6 | 0.00 | 0.00 | 0.00 | 48 | 1016.5 |
| 20260508155216 | 68 | 114 | 4.3 | 9.6 | 0.00 | 0.00 | 0.00 | 48 | 1016.5 |
| 20260508155142 | 68 | 132 | 3.5 | 10.4 | 0.00 | 0.00 | 0.00 | 47 | 1016.5 |
| 20260508155117 | 68 | 111 | 5.2 | 10.4 | 0.00 | 0.00 | 0.00 | 47 | 1016.5 |
| 20260508154830 | 68 | 76 | 4.3 | 10.4 | 0.00 | 0.00 | 0.00 | 47 | 1016.4 |
| 20260508154716 | 68 | 130 | 5.2 | 10.4 | 0.00 | 0.00 | 0.00 | 46 | 1016.4 |
| 20260508154625 | 68 | 136 | 4.3 | 10.4 | 0.00 | 0.00 | 0.00 | 47 | 1016.4 |
| 20260508154512 | 68 | 129 | 4.3 | 10.4 | 0.00 | 0.00 | 0.00 | 47 | 1016.4 |
| 20260508154423 | 68 | 86 | 5.2 | 10.4 | 0.00 | 0.00 | 0.00 | 46 | 1016.4 |
| 20260508154351 | 68 | 71 | 5.2 | 11.3 | 0.00 | 0.00 | 0.00 | 46 | 1016.4 |
| 20260508154217 | 68 | 66 | 5.2 | 11.3 | 0.00 | 0.00 | 0.00 | 45 | 1016.5 |
| 20260508154124 | 68 | 111 | 4.3 | 11.3 | 0.00 | 0.00 | 0.00 | 46 | 1016.5 |
| 20260508154033 | 68 | 162 | 4.3 | 11.3 | 0.00 | 0.00 | 0.00 | 47 | 1016.6 |
| 20260508153919 | 68 | 126 | 3.5 | 11.3 | 0.00 | 0.00 | 0.00 | 47 | 1016.5 |
| 20260508153846 | 68 | 203 | 3.5 | 11.3 | 0.00 | 0.00 | 0.00 | 46 | 1016.5 |
| 20260508153717 | 68 | 66 | 4.3 | 11.3 | 0.00 | 0.00 | 0.00 | 47 | 1016.4 |
| 20260508153625 | 68 | 85 | 4.3 | 11.3 | 0.00 | 0.00 | 0.00 | 46 | 1016.4 |
| 20260508153556 | 68 | 77 | 4.3 | 9.6 | 0.00 | 0.00 | 0.00 | 48 | 1016.4 |
| 20260508153351 | 67 | 66 | 5.2 | 9.6 | 0.00 | 0.00 | 0.00 | 48 | 1016.5 |
| 20260508153238 | 67 | 109 | 5.2 | 9.6 | 0.00 | 0.00 | 0.00 | 47 | 1016.5 |
| 20260508153128 | 67 | 130 | 4.3 | 9.6 | 0.00 | 0.00 | 0.00 | 48 | 1016.5 |
| 20260508153014 | 67 | 98 | 1.7 | 7.8 | 0.00 | 0.00 | 0.00 | 49 | 1016.5 |
| 20260508152941 | 67 | 117 | 1.7 | 8.7 | 0.00 | 0.00 | 0.00 | 50 | 1016.5 |
| 20260508152847 | 67 | 104 | 2.6 | 8.7 | 0.00 | 0.00 | 0.00 | 50 | 1016.6 |
| 20260508152714 | 67 | 137 | 4.3 | 8.7 | 0.00 | 0.00 | 0.00 | 49 | 1016.6 |
| 20260508152621 | 67 | 114 | 4.3 | 8.7 | 0.00 | 0.00 | 0.00 | 50 | 1016.6 |
| 20260508152513 | 67 | 134 | 4.3 | 8.7 | 0.00 | 0.00 | 0.00 | 50 | 1016.7 |
| 20260508152420 | 66 | 136 | 4.3 | 8.7 | 0.00 | 0.00 | 0.00 | 48 | 1016.7 |
| 20260508152347 | 66 | 109 | 3.5 | 8.7 | 0.00 | 0.00 | 0.00 | 47 | 1016.7 |
| 20260508152213 | 66 | 146 | 3.5 | 8.7 | 0.00 | 0.00 | 0.00 | 49 | 1016.6 |
| 20260508152121 | 66 | 151 | 2.6 | 8.7 | 0.00 | 0.00 | 0.00 | 49 | 1016.6 |
| 20260508152056 | 66 | 180 | 2.6 | 8.7 | 0.00 | 0.00 | 0.00 | 50 | 1016.7 |
| 20260508151830 | 66 | 98 | 2.6 | 8.7 | 0.00 | 0.00 | 0.00 | 49 | 1016.6 |
| 20260508151717 | 66 | 138 | 4.3 | 8.7 | 0.00 | 0.00 | 0.00 | 49 | 1016.6 |
| 20260508151624 | 66 | 161 | 4.3 | 8.7 | 0.00 | 0.00 | 0.00 | 48 | 1016.6 |
| 20260508151511 | 66 | 224 | 3.5 | 8.7 | 0.00 | 0.00 | 0.00 | 49 | 1016.7 |
| 20260508151423 | 66 | 167 | 4.3 | 8.7 | 0.00 | 0.00 | 0.00 | 51 | 1016.7 |
| 20260508151331 | 66 | 134 | 5.2 | 8.7 | 0.00 | 0.00 | 0.00 | 50 | 1016.7 |
| 20260508151239 | 67 | 150 | 7.0 | 8.7 | 0.00 | 0.00 | 0.00 | 51 | 1016.7 |
| 20260508151124 | 67 | 136 | 6.1 | 8.7 | 0.00 | 0.00 | 0.00 | 50 | 1016.7 |
| 20260508151012 | 67 | 163 | 4.3 | 8.7 | 0.00 | 0.00 | 0.00 | 51 | 1016.8 |
| 20260508150920 | 67 | 165 | 2.6 | 7.0 | 0.00 | 0.00 | 0.00 | 49 | 1016.8 |
| 20260508150848 | 67 | 142 | 1.7 | 7.0 | 0.00 | 0.00 | 0.00 | 50 | 1016.8 |
| 20260508150718 | 67 | 120 | 1.7 | 7.0 | 0.00 | 0.00 | 0.00 | 50 | 1016.9 |
| 20260508150645 | 67 | 146 | 2.6 | 7.0 | 0.00 | 0.00 | 0.00 | 50 | 1016.9 |
| 20260508150616 | 67 | 132 | 3.5 | 7.8 | 0.00 | 0.00 | 0.00 | 48 | 1016.8 |
| 20260508150329 | 67 | 150 | 2.6 | 8.7 | 0.00 | 0.00 | 0.00 | 50 | 1016.9 |
| 20260508150221 | 67 | 80 | 2.6 | 8.7 | 0.00 | 0.00 | 0.00 | 50 | 1016.9 |
| 20260508150128 | 67 | 120 | 3.5 | 8.7 | 0.00 | 0.00 | 0.00 | 51 | 1017.0 |
| 20260508150017 | 67 | 124 | 3.5 | 8.7 | 0.00 | 0.00 | 0.00 | 49 | 1017.1 |
| 20260508145926 | 67 | 75 | 3.5 | 8.7 | 0.00 | 0.00 | 0.00 | 50 | 1017.1 |
| 20260508145813 | 67 | 71 | 4.3 | 8.7 | 0.00 | 0.00 | 0.00 | 52 | 1017.1 |
| 20260508145721 | 66 | 94 | 4.3 | 8.7 | 0.00 | 0.00 | 0.00 | 49 | 1017.1 |
| 20260508145611 | 66 | 103 | 5.2 | 8.7 | 0.00 | 0.00 | 0.00 | 50 | 1017.1 |
| 20260508145519 | 66 | 67 | 4.3 | 8.7 | 0.00 | 0.00 | 0.00 | 49 | 1017.0 |
| 20260508145426 | 66 | 52 | 4.3 | 8.7 | 0.00 | 0.00 | 0.00 | 49 | 1017.0 |
| 20260508145313 | 66 | 74 | 3.5 | 8.7 | 0.00 | 0.00 | 0.00 | 50 | 1017.0 |
| 20260508145222 | 66 | 101 | 4.3 | 8.7 | 0.00 | 0.00 | 0.00 | 49 | 1017.0 |
| 20260508145135 | 66 | 53 | 5.2 | 8.7 | 0.00 | 0.00 | 0.00 | 49 | 1017.0 |
| 20260508145103 | 66 | 34 | 5.2 | 7.8 | 0.00 | 0.00 | 0.00 | 49 | 1017.1 |
| 20260508144817 | 66 | 82 | 5.2 | 7.8 | 0.00 | 0.00 | 0.00 | 51 | 1017.1 |
| 20260508144745 | 66 | 96 | 4.3 | 7.8 | 0.00 | 0.00 | 0.00 | 51 | 1017.1 |
| 20260508144611 | 66 | 85 | 3.5 | 7.8 | 0.00 | 0.00 | 0.00 | 49 | 1017.1 |
| 20260508144523 | 66 | 126 | 4.3 | 7.8 | 0.00 | 0.00 | 0.00 | 49 | 1017.1 |
| 20260508144431 | 66 | 207 | 3.5 | 7.8 | 0.00 | 0.00 | 0.00 | 48 | 1017.1 |
| 20260508144318 | 65 | 88 | 2.6 | 7.8 | 0.00 | 0.00 | 0.00 | 51 | 1017.2 |
| 20260508144226 | 65 | 74 | 2.6 | 7.8 | 0.00 | 0.00 | 0.00 | 52 | 1017.2 |
| 20260508144113 | 65 | 105 | 4.3 | 7.8 | 0.00 | 0.00 | 0.00 | 54 | 1017.2 |
| 20260508144024 | 65 | 119 | 4.3 | 7.8 | 0.00 | 0.00 | 0.00 | 53 | 1017.2 |
| 20260508143930 | 65 | 110 | 2.6 | 7.8 | 0.00 | 0.00 | 0.00 | 53 | 1017.1 |
| 20260508143818 | 65 | 117 | 2.6 | 7.8 | 0.00 | 0.00 | 0.00 | 53 | 1017.1 |
| 20260508143727 | 65 | 142 | 2.6 | 7.8 | 0.00 | 0.00 | 0.00 | 51 | 1017.1 |
| 20260508143634 | 65 | 84 | 4.3 | 7.8 | 0.00 | 0.00 | 0.00 | 56 | 1017.2 |
| 20260508143548 | 65 | 132 | 5.2 | 8.7 | 0.00 | 0.00 | 0.00 | 56 | 1017.2 |
| 20260508143321 | 64 | 94 | 6.1 | 8.7 | 0.00 | 0.00 | 0.00 | 54 | 1017.1 |
| 20260508143229 | 64 | 109 | 6.1 | 8.7 | 0.00 | 0.00 | 0.00 | 55 | 1017.2 |
| 20260508143118 | 64 | 111 | 4.3 | 8.7 | 0.00 | 0.00 | 0.00 | 57 | 1017.2 |
| 20260508143046 | 64 | 111 | 3.5 | 8.7 | 0.00 | 0.00 | 0.00 | 56 | 1017.2 |
| 20260508142912 | 64 | 157 | 3.5 | 8.7 | 0.00 | 0.00 | 0.00 | 55 | 1017.2 |
| 20260508142822 | 64 | 145 | 4.3 | 8.7 | 0.00 | 0.00 | 0.00 | 56 | 1017.2 |
| 20260508142730 | 64 | 144 | 5.2 | 8.7 | 0.00 | 0.00 | 0.00 | 54 | 1017.2 |
| 20260508142617 | 64 | 150 | 3.5 | 8.7 | 0.00 | 0.00 | 0.00 | 59 | 1017.3 |
| 20260508142525 | 64 | 132 | 2.6 | 7.0 | 0.00 | 0.00 | 0.00 | 58 | 1017.3 |
| 20260508142412 | 64 | 78 | 2.6 | 7.8 | 0.00 | 0.00 | 0.00 | 58 | 1017.3 |
| 20260508142340 | 64 | 126 | 1.7 | 7.8 | 0.00 | 0.00 | 0.00 | 58 | 1017.4 |
| 20260508142211 | 64 | 42 | 2.6 | 7.8 | 0.00 | 0.00 | 0.00 | 58 | 1017.3 |
| 20260508142138 | 64 | 61 | 2.6 | 7.8 | 0.00 | 0.00 | 0.00 | 58 | 1017.3 |
| 20260508142109 | 64 | 74 | 3.5 | 7.8 | 0.00 | 0.00 | 0.00 | 56 | 1017.4 |
| 20260508141822 | 64 | 123 | 4.3 | 7.8 | 0.00 | 0.00 | 0.00 | 57 | 1017.4 |
| 20260508141713 | 64 | 86 | 5.2 | 7.8 | 0.00 | 0.00 | 0.00 | 57 | 1017.3 |
| 20260508141619 | 64 | 117 | 5.2 | 7.8 | 0.00 | 0.00 | 0.00 | 57 | 1017.4 |
| 20260508141527 | 64 | 121 | 5.2 | 7.8 | 0.00 | 0.00 | 0.00 | 59 | 1017.4 |
| 20260508141414 | 64 | 155 | 4.3 | 7.8 | 0.00 | 0.00 | 0.00 | 58 | 1017.2 |
| 20260508141321 | 64 | 123 | 3.5 | 7.8 | 0.00 | 0.00 | 0.00 | 59 | 1017.2 |
| 20260508141229 | 64 | 113 | 1.7 | 4.3 | 0.00 | 0.00 | 0.00 | 59 | 1017.2 |
| 20260508141122 | 64 | 102 | 1.7 | 4.3 | 0.00 | 0.00 | 0.00 | 59 | 1017.2 |
| 20260508141030 | 64 | 360 | 2.6 | 4.3 | 0.00 | 0.00 | 0.00 | 59 | 1017.2 |
| 20260508140936 | 64 | 66 | 2.6 | 4.3 | 0.00 | 0.00 | 0.00 | 59 | 1017.2 |
| 20260508140822 | 64 | 74 | 2.6 | 6.1 | 0.00 | 0.00 | 0.00 | 61 | 1017.2 |
| 20260508140731 | 64 | 78 | 1.7 | 6.1 | 0.00 | 0.00 | 0.00 | 60 | 1017.2 |
| 20260508140637 | 63 | 83 | 2.6 | 6.1 | 0.00 | 0.00 | 0.00 | 61 | 1017.1 |
| 20260508140551 | 63 | 76 | 2.6 | 6.1 | 0.00 | 0.00 | 0.00 | 61 | 1017.1 |
| 20260508140345 | 63 | 115 | 2.6 | 6.1 | 0.00 | 0.00 | 0.00 | 62 | 1017.2 |
| 20260508140211 | 63 | 98 | 1.7 | 6.1 | 0.00 | 0.00 | 0.00 | 62 | 1017.2 |
| 20260508140119 | 63 | 67 | 1.7 | 6.1 | 0.00 | 0.00 | 0.00 | 62 | 1017.2 |
| 20260508140027 | 63 | 81 | 2.6 | 6.1 | 0.00 | 0.00 | 0.00 | 62 | 1017.2 |
| 20260508135917 | 63 | 76 | 2.6 | 6.1 | 0.00 | 0.00 | 0.00 | 63 | 1017.2 |
| 20260508135824 | 63 | 115 | 1.7 | 6.1 | 0.00 | 0.00 | 0.00 | 65 | 1017.2 |
| 20260508135712 | 62 | 26 | 0.9 | 6.1 | 0.00 | 0.00 | 0.00 | 65 | 1017.2 |
| 20260508135619 | 62 | 73 | 0.9 | 6.1 | 0.00 | 0.00 | 0.00 | 63 | 1017.2 |
| 20260508135527 | 62 | 93 | 1.7 | 6.1 | 0.00 | 0.00 | 0.00 | 63 | 1017.2 |
| 20260508135419 | 62 | 119 | 2.6 | 6.1 | 0.00 | 0.00 | 0.00 | 63 | 1017.2 |
| 20260508135326 | 62 | 105 | 2.6 | 6.1 | 0.00 | 0.00 | 0.00 | 63 | 1017.2 |
| 20260508135213 | 62 | 132 | 2.6 | 6.1 | 0.00 | 0.00 | 0.00 | 63 | 1017.2 |
| 20260508135121 | 62 | 112 | 2.6 | 6.1 | 0.00 | 0.00 | 0.00 | 63 | 1017.2 |
| 20260508135052 | 62 | 109 | 2.6 | 6.1 | 0.00 | 0.00 | 0.00 | 65 | 1017.2 |
| 20260508134830 | 62 | 99 | 2.6 | 6.1 | 0.00 | 0.00 | 0.00 | 65 | 1017.1 |
| 20260508134717 | 62 | 101 | 2.6 | 6.1 | 0.00 | 0.00 | 0.00 | 63 | 1017.1 |
| 20260508134625 | 62 | 149 | 2.6 | 4.3 | 0.00 | 0.00 | 0.00 | 64 | 1017.1 |
| 20260508134513 | 62 | 151 | 1.7 | 3.5 | 0.00 | 0.00 | 0.00 | 65 | 1017.1 |
| 20260508134419 | 62 | 148 | 1.7 | 3.5 | 0.00 | 0.00 | 0.00 | 64 | 1017.1 |
| 20260508134346 | 62 | 115 | 1.7 | 3.5 | 0.00 | 0.00 | 0.00 | 65 | 1017.1 |
| 20260508134216 | 62 | 82 | 1.7 | 3.5 | 0.00 | 0.00 | 0.00 | 66 | 1017.2 |
| 20260508134123 | 62 | 67 | 1.7 | 3.5 | 0.00 | 0.00 | 0.00 | 66 | 1017.2 |
| 20260508134051 | 62 | 77 | 1.7 | 3.5 | 0.00 | 0.00 | 0.00 | 66 | 1017.2 |
| 20260508133918 | 62 | 65 | 1.7 | 3.5 | 0.00 | 0.00 | 0.00 | 65 | 1017.2 |
| 20260508133826 | 62 | 144 | 1.7 | 3.5 | 0.00 | 0.00 | 0.00 | 66 | 1017.2 |
| 20260508133717 | 62 | 149 | 1.7 | 5.2 | 0.00 | 0.00 | 0.00 | 66 | 1017.1 |
| 20260508133623 | 62 | 128 | 1.7 | 5.2 | 0.00 | 0.00 | 0.00 | 65 | 1017.1 |
| 20260508133554 | 61 | 128 | 1.7 | 5.2 | 0.00 | 0.00 | 0.00 | 65 | 1017.2 |
| 20260508133348 | 61 | 167 | 1.7 | 5.2 | 0.00 | 0.00 | 0.00 | 65 | 1017.3 |
| 20260508133214 | 61 | 119 | 1.7 | 5.2 | 0.00 | 0.00 | 0.00 | 64 | 1017.3 |
| 20260508133125 | 61 | 166 | 1.7 | 5.2 | 0.00 | 0.00 | 0.00 | 66 | 1017.3 |
| 20260508133013 | 61 | 111 | 1.7 | 5.2 | 0.00 | 0.00 | 0.00 | 67 | 1017.4 |
| 20260508132921 | 61 | 67 | 1.7 | 5.2 | 0.00 | 0.00 | 0.00 | 68 | 1017.4 |
| 20260508132829 | 61 | 133 | 1.7 | 5.2 | 0.00 | 0.00 | 0.00 | 69 | 1017.4 |
| 20260508132717 | 60 | 107 | 1.7 | 3.5 | 0.00 | 0.00 | 0.00 | 69 | 1017.4 |
| 20260508132625 | 60 | 107 | 1.7 | 3.5 | 0.00 | 0.00 | 0.00 | 69 | 1017.4 |
| 20260508132516 | 60 | 101 | 1.7 | 3.5 | 0.00 | 0.00 | 0.00 | 69 | 1017.5 |
| 20260508132423 | 60 | 117 | 1.7 | 3.5 | 0.00 | 0.00 | 0.00 | 70 | 1017.5 |
| 20260508132311 | 60 | 173 | 0.9 | 3.5 | 0.00 | 0.00 | 0.00 | 69 | 1017.5 |
| 20260508132220 | 60 | 167 | 0.9 | 3.5 | 0.00 | 0.00 | 0.00 | 68 | 1017.5 |
| 20260508132127 | 60 | 190 | 0.9 | 4.3 | 0.00 | 0.00 | 0.00 | 69 | 1017.4 |
| 20260508132102 | 60 | 132 | 1.7 | 4.3 | 0.00 | 0.00 | 0.00 | 70 | 1017.4 |
| 20260508131815 | 59 | 110 | 1.7 | 4.3 | 0.00 | 0.00 | 0.00 | 69 | 1017.4 |
| 20260508131722 | 59 | 153 | 1.7 | 4.3 | 0.00 | 0.00 | 0.00 | 71 | 1017.4 |
| 20260508131630 | 59 | 123 | 1.7 | 4.3 | 0.00 | 0.00 | 0.00 | 71 | 1017.3 |
| 20260508131537 | 59 | 111 | 1.7 | 4.3 | 0.00 | 0.00 | 0.00 | 70 | 1017.3 |
| 20260508131428 | 59 | 112 | 1.7 | 4.3 | 0.00 | 0.00 | 0.00 | 70 | 1017.3 |
| 20260508131316 | 59 | 112 | 1.7 | 4.3 | 0.00 | 0.00 | 0.00 | 70 | 1017.4 |
| 20260508131224 | 59 | 132 | 2.6 | 4.3 | 0.00 | 0.00 | 0.00 | 70 | 1017.4 |
| 20260508131130 | 59 | 156 | 3.5 | 4.3 | 0.00 | 0.00 | 0.00 | 71 | 1017.4 |
| 20260508131017 | 59 | 156 | 3.5 | 5.2 | 0.00 | 0.00 | 0.00 | 71 | 1017.4 |
| 20260508130927 | 59 | 156 | 2.6 | 4.3 | 0.00 | 0.00 | 0.00 | 71 | 1017.4 |
| 20260508130814 | 59 | 113 | 2.6 | 4.3 | 0.00 | 0.00 | 0.00 | 73 | 1017.2 |
| 20260508130742 | 59 | 126 | 2.6 | 4.3 | 0.00 | 0.00 | 0.00 | 72 | 1017.2 |
| 20260508130628 | 58 | 119 | 2.6 | 4.3 | 0.00 | 0.00 | 0.00 | 72 | 1017.2 |
| 20260508130559 | 58 | 127 | 2.6 | 4.3 | 0.00 | 0.00 | 0.00 | 74 | 1017.2 |
| 20260508130318 | 58 | 136 | 1.7 | 4.3 | 0.00 | 0.00 | 0.00 | 74 | 1017.2 |
| 20260508130224 | 58 | 150 | 0.9 | 4.3 | 0.00 | 0.00 | 0.00 | 75 | 1017.2 |
| 20260508130111 | 58 | 101 | 0.9 | 4.3 | 0.00 | 0.00 | 0.00 | 75 | 1017.0 |
| 20260508130019 | 58 | 115 | 1.7 | 4.3 | 0.00 | 0.00 | 0.00 | 74 | 1017.1 |
| 20260508125926 | 58 | 112 | 2.6 | 4.3 | 0.00 | 0.00 | 0.00 | 74 | 1017.1 |
| 20260508125834 | 58 | 115 | 2.6 | 4.3 | 0.00 | 0.00 | 0.00 | 76 | 1017.1 |
| 20260508125724 | 57 | 141 | 2.6 | 4.3 | 0.00 | 0.00 | 0.00 | 75 | 1017.1 |
| 20260508125651 | 57 | 142 | 2.6 | 4.3 | 0.00 | 0.00 | 0.00 | 76 | 1017.1 |
| 20260508125518 | 57 | 128 | 2.6 | 4.3 | 0.00 | 0.00 | 0.00 | 76 | 1017.0 |
| 20260508125426 | 57 | 106 | 2.6 | 4.3 | 0.00 | 0.00 | 0.00 | 76 | 1017.0 |
| 20260508125334 | 57 | 137 | 2.6 | 4.3 | 0.00 | 0.00 | 0.00 | 76 | 1017.0 |
| 20260508125220 | 57 | 137 | 3.5 | 4.3 | 0.00 | 0.00 | 0.00 | 76 | 1017.0 |
| 20260508125113 | 57 | 141 | 3.5 | 4.3 | 0.00 | 0.00 | 0.00 | 77 | 1017.0 |
| 20260508125045 | 57 | 135 | 3.5 | 5.2 | 0.00 | 0.00 | 0.00 | 77 | 1017.0 |
| 20260508124817 | 56 | 146 | 1.7 | 3.5 | 0.00 | 0.00 | 0.00 | 79 | 1016.9 |
| 20260508124726 | 56 | 126 | 0.9 | 3.5 | 0.00 | 0.00 | 0.00 | 79 | 1016.9 |
| 20260508124618 | 56 | 126 | 1.7 | 3.5 | 0.00 | 0.00 | 0.00 | 79 | 1017.0 |
| 20260508124525 | 56 | 126 | 2.6 | 3.5 | 0.00 | 0.00 | 0.00 | 80 | 1017.0 |
| 20260508124413 | 55 | 141 | 2.6 | 3.5 | 0.00 | 0.00 | 0.00 | 80 | 1016.9 |
| 20260508124341 | 55 | 140 | 2.6 | 3.5 | 0.00 | 0.00 | 0.00 | 81 | 1016.9 |
| 20260508124226 | 55 | 115 | 1.7 | 2.6 | 0.00 | 0.00 | 0.00 | 82 | 1016.9 |
| 20260508124133 | 55 | 104 | 1.7 | 2.6 | 0.00 | 0.00 | 0.00 | 83 | 1016.8 |
| 20260508124018 | 54 | 104 | 1.7 | 2.6 | 0.00 | 0.00 | 0.00 | 84 | 1016.9 |
| 20260508123949 | 54 | 137 | 0.9 | 2.6 | 0.00 | 0.00 | 0.00 | 85 | 1016.9 |
| 20260508123815 | 54 | 101 | 0.0 | 1.7 | 0.00 | 0.00 | 0.00 | 85 | 1016.9 |
| 20260508123721 | 53 | 49 | 0.0 | 0.0 | 0.00 | 0.00 | 0.00 | 86 | 1016.9 |
| 20260508123628 | 53 | 49 | 0.0 | 0.0 | 0.00 | 0.00 | 0.00 | 87 | 1016.9 |
| 20260508123557 | 53 | 49 | 0.0 | 0.0 | 0.00 | 0.00 | 0.00 | 89 | 1016.9 |
| 20260508123334 | 52 | 49 | 0.0 | 0.0 | 0.00 | 0.00 | 0.00 | 88 | 1017.0 |
| 20260508123241 | 52 | 44 | 0.0 | 0.0 | 0.00 | 0.00 | 0.00 | 88 | 1017.0 |
| 20260508123127 | 52 | 24 | 0.0 | 0.0 | 0.00 | 0.00 | 0.00 | 88 | 1017.0 |
| 20260508123015 | 52 | 24 | 0.0 | 0.0 | 0.00 | 0.00 | 0.00 | 89 | 1017.1 |
| 20260508122924 | 52 | 24 | 0.0 | 0.0 | 0.00 | 0.00 | 0.00 | 89 | 1017.1 |
| 20260508122851 | 52 | 24 | 0.0 | 0.0 | 0.00 | 0.00 | 0.00 | 89 | 1017.1 |
| 20260508122720 | 52 | 24 | 0.0 | 0.0 | 0.00 | 0.00 | 0.00 | 90 | 1017.1 |
| 20260508122628 | 51 | 24 | 0.0 | 0.0 | 0.00 | 0.00 | 0.00 | 90 | 1017.1 |
| 20260508122515 | 51 | 24 | 0.0 | 0.0 | 0.00 | 0.00 | 0.00 | 90 | 1017.1 |
| 20260508122422 | 51 | 24 | 0.0 | 0.0 | 0.00 | 0.00 | 0.00 | 91 | 1017.1 |
| 20260508122330 | 51 | 24 | 0.0 | 0.9 | 0.00 | 0.00 | 0.00 | 91 | 1017.1 |
| 20260508122238 | 51 | 24 | 0.0 | 1.7 | 0.00 | 0.00 | 0.00 | 92 | 1017.1 |
| 20260508122128 | 51 | 24 | 0.0 | 1.7 | 0.00 | 0.00 | 0.00 | 92 | 1017.1 |
| 20260508122059 | 51 | 24 | 0.0 | 1.7 | 0.00 | 0.00 | 0.00 | 92 | 1017.2 |
| 20260508121813 | 50 | 24 | 0.0 | 1.7 | 0.00 | 0.00 | 0.00 | 93 | 1017.0 |
| 20260508121742 | 50 | 38 | 0.0 | 1.7 | 0.00 | 0.00 | 0.00 | 92 | 1017.0 |
| 20260508121628 | 50 | 38 | 0.0 | 2.6 | 0.00 | 0.00 | 0.00 | 93 | 1017.1 |
| 20260508121519 | 50 | 37 | 0.9 | 2.6 | 0.00 | 0.00 | 0.00 | 93 | 1017.1 |
| 20260508121426 | 50 | 26 | 0.9 | 2.6 | 0.00 | 0.00 | 0.00 | 93 | 1017.1 |
| 20260508121312 | 50 | 5 | 0.9 | 2.6 | 0.00 | 0.00 | 0.00 | 93 | 1017.1 |
| 20260508121220 | 50 | 34 | 0.9 | 2.6 | 0.00 | 0.00 | 0.00 | 93 | 1017.1 |
| 20260508121126 | 49 | 11 | 0.9 | 2.6 | 0.00 | 0.00 | 0.00 | 93 | 1017.1 |
| 20260508121035 | 49 | 19 | 0.0 | 2.6 | 0.00 | 0.00 | 0.00 | 93 | 1017.1 |
| 20260508120925 | 49 | 18 | 0.9 | 2.6 | 0.00 | 0.00 | 0.00 | 93 | 1017.1 |
| 20260508120812 | 49 | 24 | 0.9 | 2.6 | 0.00 | 0.00 | 0.00 | 93 | 1017.1 |
| 20260508120719 | 49 | 34 | 0.0 | 1.7 | 0.00 | 0.00 | 0.00 | 93 | 1017.1 |
| 20260508120626 | 49 | 9 | 0.0 | 1.7 | 0.00 | 0.00 | 0.00 | 93 | 1017.1 |
| 20260508120601 | 49 | 9 | 0.9 | 1.7 | 0.00 | 0.00 | 0.00 | 93 | 1017.1 |
| 20260508120314 | 49 | 9 | 0.9 | 1.7 | 0.00 | 0.00 | 0.00 | 93 | 1017.1 |
| 20260508120242 | 49 | 9 | 0.9 | 1.7 | 0.00 | 0.00 | 0.00 | 93 | 1017.1 |
| 20260508120128 | 49 | 344 | 0.0 | 1.7 | 0.00 | 0.00 | 0.00 | 93 | 1017.1 |
| 20260508120016 | 49 | 13 | 0.0 | 1.7 | 0.00 | 0.00 | 0.00 | 93 | 1017.1 |
| 20260508115923 | 49 | 13 | 0.0 | 1.7 | 0.00 | 0.00 | 0.00 | 93 | 1017.1 |
| 20260508115814 | 48 | 13 | 0.9 | 1.7 | 0.00 | 0.00 | 0.00 | 93 | 1017.1 |
| 20260508115723 | 48 | 13 | 0.9 | 2.6 | 0.00 | 0.00 | 0.00 | 93 | 1017.1 |
| 20260508115651 | 48 | 13 | 0.9 | 2.6 | 0.00 | 0.00 | 0.00 | 93 | 1017.1 |
| 20260508115517 | 48 | 13 | 0.0 | 2.6 | 0.00 | 0.00 | 0.00 | 93 | 1017.1 |
| 20260508115423 | 48 | 13 | 0.0 | 2.6 | 0.00 | 0.00 | 0.00 | 93 | 1017.1 |
| 20260508115330 | 48 | 13 | 0.0 | 2.6 | 0.00 | 0.00 | 0.00 | 93 | 1017.1 |
| 20260508115221 | 48 | 13 | 0.9 | 2.6 | 0.00 | 0.00 | 0.00 | 93 | 1017.1 |
| 20260508115149 | 48 | 13 | 0.9 | 2.6 | 0.00 | 0.00 | 0.00 | 93 | 1017.0 |
| 20260508115058 | 48 | 13 | 0.9 | 2.6 | 0.00 | 0.00 | 0.00 | 93 | 1017.1 |
| 20260508114812 | 48 | 360 | 0.9 | 2.6 | 0.00 | 0.00 | 0.00 | 93 | 1016.9 |
| 20260508114720 | 48 | 348 | 0.9 | 2.6 | 0.00 | 0.00 | 0.00 | 93 | 1016.9 |
| 20260508114611 | 48 | 348 | 0.9 | 2.6 | 0.00 | 0.00 | 0.00 | 92 | 1017.0 |
| 20260508114519 | 48 | 348 | 0.0 | 2.6 | 0.00 | 0.00 | 0.00 | 92 | 1016.9 |
| 20260508114426 | 48 | 348 | 0.0 | 2.6 | 0.00 | 0.00 | 0.00 | 92 | 1016.9 |
| 20260508114315 | 48 | 348 | 0.9 | 2.6 | 0.00 | 0.00 | 0.00 | 92 | 1016.8 |
| 20260508114222 | 48 | 348 | 0.9 | 2.6 | 0.00 | 0.00 | 0.00 | 92 | 1016.8 |
| 20260508114112 | 48 | 348 | 1.7 | 2.6 | 0.00 | 0.00 | 0.00 | 92 | 1016.8 |
| 20260508114019 | 48 | 348 | 1.7 | 2.6 | 0.00 | 0.00 | 0.00 | 92 | 1016.8 |
| 20260508113947 | 48 | 348 | 0.9 | 1.7 | 0.00 | 0.00 | 0.00 | 92 | 1016.8 |
| 20260508113834 | 48 | 319 | 0.9 | 1.7 | 0.00 | 0.00 | 0.00 | 92 | 1016.7 |
| 20260508113720 | 48 | 319 | 0.9 | 1.7 | 0.00 | 0.00 | 0.00 | 92 | 1016.7 |
| 20260508113647 | 48 | 319 | 0.9 | 1.7 | 0.00 | 0.00 | 0.00 | 92 | 1016.7 |
| 20260508113602 | 48 | 319 | 0.9 | 1.7 | 0.00 | 0.00 | 0.00 | 92 | 1016.7 |
| 20260508113314 | 47 | 319 | 0.9 | 1.7 | 0.00 | 0.00 | 0.00 | 92 | 1016.7 |
| 20260508113221 | 48 | 319 | 0.9 | 0.9 | 0.00 | 0.00 | 0.00 | 92 | 1016.7 |
| 20260508113130 | 48 | 319 | 0.9 | 0.9 | 0.00 | 0.00 | 0.00 | 92 | 1016.7 |
| 20260508113037 | 48 | 319 | 0.9 | 0.9 | 0.00 | 0.00 | 0.00 | 92 | 1016.6 |
| 20260508112923 | 47 | 319 | 0.9 | 0.9 | 0.00 | 0.00 | 0.00 | 92 | 1016.6 |
| 20260508112836 | 47 | 319 | 0.9 | 0.9 | 0.00 | 0.00 | 0.00 | 92 | 1016.7 |
| 20260508112723 | 47 | 319 | 0.9 | 0.9 | 0.00 | 0.00 | 0.00 | 92 | 1016.7 |
| 20260508112629 | 47 | 319 | 0.9 | 0.9 | 0.00 | 0.00 | 0.00 | 92 | 1016.7 |
| 20260508112518 | 47 | 319 | 0.0 | 0.9 | 0.00 | 0.00 | 0.00 | 92 | 1016.7 |
| 20260508112445 | 47 | 319 | 0.0 | 0.9 | 0.00 | 0.00 | 0.00 | 92 | 1016.7 |
| 20260508112311 | 47 | 319 | 0.0 | 0.9 | 0.00 | 0.00 | 0.00 | 92 | 1016.5 |
| 20260508112223 | 47 | 319 | 0.0 | 0.9 | 0.00 | 0.00 | 0.00 | 92 | 1016.5 |
| 20260508112152 | 47 | 319 | 0.0 | 1.7 | 0.00 | 0.00 | 0.00 | 92 | 1016.6 |
| 20260508112102 | 47 | 319 | 0.0 | 1.7 | 0.00 | 0.00 | 0.00 | 92 | 1016.5 |
| 20260508111814 | 47 | 319 | 0.0 | 1.7 | 0.00 | 0.00 | 0.00 | 91 | 1016.6 |
| 20260508111722 | 47 | 319 | 0.0 | 1.7 | 0.00 | 0.00 | 0.00 | 91 | 1016.6 |
| 20260508111614 | 47 | 319 | 0.0 | 1.7 | 0.00 | 0.00 | 0.00 | 91 | 1016.5 |
| 20260508111521 | 47 | 319 | 0.0 | 1.7 | 0.00 | 0.00 | 0.00 | 91 | 1016.5 |
| 20260508111448 | 47 | 319 | 0.0 | 1.7 | 0.00 | 0.00 | 0.00 | 91 | 1016.4 |
| 20260508111313 | 47 | 319 | 0.9 | 1.7 | 0.00 | 0.00 | 0.00 | 91 | 1016.4 |
| 20260508111221 | 48 | 319 | 0.9 | 1.7 | 0.00 | 0.00 | 0.00 | 91 | 1016.4 |
| 20260508111149 | 48 | 319 | 1.7 | 1.7 | 0.00 | 0.00 | 0.00 | 91 | 1016.3 |
| 20260508111019 | 48 | 317 | 0.9 | 1.7 | 0.00 | 0.00 | 0.00 | 91 | 1016.3 |
| 20260508110926 | 48 | 312 | 0.9 | 1.7 | 0.00 | 0.00 | 0.00 | 91 | 1016.3 |
| 20260508110814 | 48 | 299 | 0.0 | 0.0 | 0.00 | 0.00 | 0.00 | 91 | 1016.2 |
| 20260508110722 | 48 | 299 | 0.0 | 0.0 | 0.00 | 0.00 | 0.00 | 91 | 1016.2 |
| 20260508110604 | 48 | 299 | 0.0 | 0.0 | 0.00 | 0.00 | 0.00 | 92 | 1016.1 |
| 20260508110337 | 48 | 299 | 0.0 | 0.0 | 0.00 | 0.00 | 0.00 | 92 | 1016.1 |
| 20260508110244 | 48 | 299 | 0.0 | 0.0 | 0.00 | 0.00 | 0.00 | 91 | 1016.1 |
| 20260508110130 | 48 | 299 | 0.0 | 0.0 | 0.00 | 0.00 | 0.00 | 91 | 1016.1 |
| 20260508110017 | 48 | 299 | 0.0 | 0.9 | 0.00 | 0.00 | 0.00 | 91 | 1016.0 |
| 20260508105925 | 48 | 299 | 0.0 | 0.9 | 0.00 | 0.00 | 0.00 | 91 | 1016.0 |
| 20260508105816 | 48 | 299 | 0.0 | 0.9 | 0.00 | 0.00 | 0.00 | 91 | 1016.1 |
| 20260508105723 | 48 | 299 | 0.0 | 0.9 | 0.00 | 0.00 | 0.00 | 91 | 1016.1 |
| 20260508105611 | 48 | 299 | 0.0 | 1.7 | 0.00 | 0.00 | 0.00 | 91 | 1016.0 |
| 20260508105517 | 48 | 299 | 0.0 | 1.7 | 0.00 | 0.00 | 0.00 | 91 | 1016.0 |
| 20260508105426 | 48 | 299 | 0.0 | 1.7 | 0.00 | 0.00 | 0.00 | 91 | 1016.0 |
| 20260508105317 | 48 | 299 | 0.0 | 1.7 | 0.00 | 0.00 | 0.00 | 91 | 1016.0 |
| 20260508105224 | 48 | 299 | 0.0 | 1.7 | 0.00 | 0.00 | 0.00 | 91 | 1016.0 |
| 20260508105132 | 48 | 299 | 0.0 | 1.7 | 0.00 | 0.00 | 0.00 | 91 | 1016.0 |
| 20260508105104 | 48 | 299 | 0.9 | 1.7 | 0.00 | 0.00 | 0.00 | 91 | 1015.9 |
| 20260508104837 | 48 | 299 | 0.9 | 1.7 | 0.00 | 0.00 | 0.00 | 91 | 1015.9 |
| 20260508104727 | 48 | 299 | 0.9 | 1.7 | 0.00 | 0.00 | 0.00 | 91 | 1015.9 |
| 20260508104614 | 48 | 299 | 0.0 | 1.7 | 0.00 | 0.00 | 0.00 | 91 | 1015.9 |
| 20260508104521 | 48 | 310 | 0.0 | 1.7 | 0.00 | 0.00 | 0.00 | 91 | 1015.9 |
| 20260508104429 | 48 | 310 | 0.0 | 0.0 | 0.00 | 0.00 | 0.00 | 91 | 1016.0 |
| 20260508104317 | 48 | 310 | 0.0 | 0.0 | 0.00 | 0.00 | 0.00 | 91 | 1015.9 |
| 20260508104229 | 48 | 310 | 0.0 | 0.0 | 0.00 | 0.00 | 0.00 | 91 | 1015.9 |
| 20260508104116 | 48 | 311 | 0.0 | 0.0 | 0.00 | 0.00 | 0.00 | 91 | 1015.9 |
| 20260508104023 | 48 | 311 | 0.0 | 0.0 | 0.00 | 0.00 | 0.00 | 90 | 1015.9 |
| 20260508103911 | 48 | 311 | 0.0 | 0.0 | 0.00 | 0.00 | 0.00 | 90 | 1015.7 |
| 20260508103819 | 48 | 311 | 0.0 | 0.0 | 0.00 | 0.00 | 0.00 | 90 | 1015.7 |
| 20260508103726 | 48 | 311 | 0.0 | 0.0 | 0.00 | 0.00 | 0.00 | 90 | 1015.7 |
| 20260508103636 | 48 | 311 | 0.0 | 0.0 | 0.00 | 0.00 | 0.00 | 90 | 1015.8 |
| 20260508103606 | 48 | 311 | 0.0 | 0.0 | 0.00 | 0.00 | 0.00 | 90 | 1015.7 |
| 20260508103318 | 48 | 311 | 0.0 | 0.0 | 0.00 | 0.00 | 0.00 | 90 | 1015.7 |
| 20260508103227 | 48 | 311 | 0.0 | 0.0 | 0.00 | 0.00 | 0.00 | 90 | 1015.7 |
| 20260508103119 | 48 | 311 | 0.0 | 0.0 | 0.00 | 0.00 | 0.00 | 90 | 1015.6 |
| 20260508103026 | 48 | 311 | 0.0 | 0.0 | 0.00 | 0.00 | 0.00 | 90 | 1015.6 |
| 20260508102934 | 48 | 311 | 0.0 | 0.0 | 0.00 | 0.00 | 0.00 | 90 | 1015.6 |
| 20260508102821 | 48 | 311 | 0.0 | 0.0 | 0.00 | 0.00 | 0.00 | 90 | 1015.6 |
| 20260508102748 | 48 | 311 | 0.0 | 0.0 | 0.00 | 0.00 | 0.00 | 90 | 1015.5 |
| 20260508102614 | 48 | 311 | 0.0 | 0.0 | 0.00 | 0.00 | 0.00 | 90 | 1015.6 |
| 20260508102521 | 48 | 311 | 0.0 | 0.0 | 0.00 | 0.00 | 0.00 | 90 | 1015.6 |
| 20260508102411 | 49 | 311 | 0.0 | 0.0 | 0.00 | 0.00 | 0.00 | 90 | 1015.5 |
| 20260508102339 | 49 | 311 | 0.0 | 0.0 | 0.00 | 0.00 | 0.00 | 90 | 1015.6 |
| 20260508102224 | 49 | 311 | 0.0 | 0.0 | 0.00 | 0.00 | 0.00 | 90 | 1015.6 |
| 20260508102111 | 49 | 311 | 0.0 | 0.0 | 0.00 | 0.00 | 0.00 | 89 | 1015.5 |
| 20260508102047 | 49 | 311 | 0.0 | 0.0 | 0.00 | 0.00 | 0.00 | 89 | 1015.5 |
| 20260508101821 | 49 | 311 | 0.0 | 0.0 | 0.00 | 0.00 | 0.00 | 89 | 1015.5 |
| 20260508101728 | 49 | 311 | 0.0 | 0.0 | 0.00 | 0.00 | 0.00 | 89 | 1015.5 |
| 20260508101635 | 49 | 311 | 0.0 | 0.0 | 0.00 | 0.00 | 0.00 | 89 | 1015.6 |
| 20260508101522 | 49 | 312 | 0.0 | 0.0 | 0.00 | 0.00 | 0.00 | 89 | 1015.6 |
| 20260508101430 | 49 | 316 | 0.0 | 0.0 | 0.00 | 0.00 | 0.00 | 89 | 1015.6 |
| 20260508101321 | 49 | 316 | 0.0 | 0.0 | 0.00 | 0.00 | 0.00 | 89 | 1015.5 |
| 20260508101230 | 49 | 316 | 0.0 | 0.0 | 0.00 | 0.00 | 0.00 | 89 | 1015.5 |
| 20260508101118 | 49 | 316 | 0.0 | 0.0 | 0.00 | 0.00 | 0.00 | 89 | 1015.5 |
| 20260508101026 | 49 | 316 | 0.0 | 0.0 | 0.00 | 0.00 | 0.00 | 89 | 1015.5 |
| 20260508100933 | 49 | 316 | 0.0 | 0.0 | 0.00 | 0.00 | 0.00 | 89 | 1015.6 |
| 20260508100821 | 49 | 317 | 0.0 | 0.0 | 0.00 | 0.00 | 0.00 | 89 | 1015.6 |
| 20260508100712 | 49 | 318 | 0.0 | 0.0 | 0.00 | 0.00 | 0.00 | 89 | 1015.6 |
| 20260508100620 | 49 | 318 | 0.0 | 0.0 | 0.00 | 0.00 | 0.00 | 89 | 1015.6 |
| 20260508100551 | 49 | 319 | 0.0 | 0.0 | 0.00 | 0.00 | 0.00 | 89 | 1015.6 |
| 20260508100324 | 49 | 322 | 0.0 | 0.0 | 0.00 | 0.00 | 0.00 | 89 | 1015.5 |
| 20260508100251 | 49 | 322 | 0.0 | 0.0 | 0.00 | 0.00 | 0.00 | 89 | 1015.5 |
| 20260508100122 | 49 | 322 | 0.0 | 0.0 | 0.00 | 0.00 | 0.00 | 89 | 1015.5 |
| 20260508100029 | 49 | 322 | 0.0 | 0.0 | 0.00 | 0.00 | 0.00 | 89 | 1015.5 |
| 20260508095937 | 49 | 322 | 0.0 | 0.0 | 0.00 | 0.00 | 0.00 | 89 | 1015.5 |
| 20260508095824 | 49 | 322 | 0.0 | 0.0 | 0.00 | 0.00 | 0.00 | 88 | 1015.5 |
| 20260508095713 | 49 | 322 | 0.0 | 0.0 | 0.00 | 0.00 | 0.00 | 88 | 1015.5 |
| 20260508095621 | 49 | 322 | 0.0 | 0.0 | 0.00 | 0.00 | 0.00 | 88 | 1015.5 |
| 20260508095552 | 49 | 322 | 0.0 | 0.0 | 0.00 | 0.00 | 0.00 | 88 | 1015.6 |
| 20260508095419 | 49 | 322 | 0.0 | 0.0 | 0.00 | 0.00 | 0.00 | 88 | 1015.4 |
| 20260508095344 | 49 | 322 | 0.0 | 0.0 | 0.00 | 0.00 | 0.00 | 88 | 1015.4 |
| 20260508095231 | 49 | 322 | 0.0 | 0.0 | 0.00 | 0.00 | 0.00 | 88 | 1015.3 |
| 20260508095118 | 49 | 322 | 0.0 | 0.0 | 0.00 | 0.00 | 0.00 | 88 | 1015.4 |
| 20260508095054 | 49 | 322 | 0.0 | 0.0 | 0.00 | 0.00 | 0.00 | 89 | 1015.4 |
| 20260508094828 | 49 | 322 | 0.0 | 0.0 | 0.00 | 0.00 | 0.00 | 89 | 1015.3 |
| 20260508094736 | 49 | 322 | 0.0 | 0.0 | 0.00 | 0.00 | 0.00 | 89 | 1015.3 |
| 20260508094622 | 49 | 322 | 0.0 | 0.0 | 0.00 | 0.00 | 0.00 | 89 | 1015.3 |
| 20260508094529 | 49 | 322 | 0.0 | 0.0 | 0.00 | 0.00 | 0.00 | 89 | 1015.3 |
| 20260508094437 | 49 | 322 | 0.0 | 0.0 | 0.00 | 0.01 | 0.00 | 88 | 1015.3 |
| 20260508094328 | 49 | 322 | 0.0 | 0.0 | 0.00 | 0.01 | 0.00 | 88 | 1015.3 |
| 20260508094216 | 49 | 322 | 0.0 | 0.0 | 0.00 | 0.01 | 0.00 | 88 | 1015.3 |
| 20260508094122 | 49 | 322 | 0.0 | 0.9 | 0.00 | 0.01 | 0.00 | 88 | 1015.3 |
| 20260508094030 | 49 | 322 | 0.0 | 0.9 | 0.00 | 0.01 | 0.00 | 88 | 1015.3 |
| 20260508093916 | 49 | 322 | 0.0 | 0.9 | 0.00 | 0.01 | 0.00 | 88 | 1015.3 |
| 20260508093822 | 49 | 322 | 0.0 | 0.9 | 0.00 | 0.01 | 0.00 | 88 | 1015.3 |
| 20260508093734 | 49 | 322 | 0.0 | 0.9 | 0.00 | 0.01 | 0.00 | 88 | 1015.2 |
| 20260508093641 | 49 | 322 | 0.0 | 0.9 | 0.00 | 0.01 | 0.00 | 88 | 1015.2 |
| 20260508093612 | 49 | 322 | 0.0 | 0.9 | 0.00 | 0.01 | 0.00 | 88 | 1015.2 |
| 20260508093325 | 49 | 322 | 0.0 | 0.9 | 0.00 | 0.01 | 0.00 | 88 | 1015.2 |
| 20260508093213 | 49 | 340 | 0.0 | 0.0 | 0.00 | 0.01 | 0.00 | 88 | 1015.1 |
| 20260508093125 | 49 | 340 | 0.0 | 1.7 | 0.00 | 0.01 | 0.00 | 88 | 1015.1 |
| 20260508093032 | 49 | 340 | 0.0 | 1.7 | 0.00 | 0.01 | 0.00 | 88 | 1015.1 |
| 20260508092919 | 49 | 340 | 0.0 | 2.6 | 0.00 | 0.01 | 0.00 | 88 | 1015.1 |
| 20260508092826 | 49 | 340 | 0.0 | 2.6 | 0.00 | 0.01 | 0.00 | 88 | 1015.1 |
| 20260508092713 | 50 | 340 | 0.0 | 2.6 | 0.00 | 0.01 | 0.00 | 88 | 1015.2 |
| 20260508092621 | 49 | 340 | 0.0 | 2.6 | 0.00 | 0.01 | 0.00 | 88 | 1015.2 |
| 20260508092512 | 49 | 340 | 0.0 | 2.6 | 0.00 | 0.01 | 0.00 | 88 | 1015.2 |
| 20260508092420 | 49 | 340 | 0.0 | 2.6 | 0.00 | 0.01 | 0.00 | 88 | 1015.2 |
| 20260508092327 | 50 | 340 | 0.9 | 2.6 | 0.00 | 0.01 | 0.00 | 88 | 1015.1 |
| 20260508092215 | 50 | 340 | 1.7 | 2.6 | 0.00 | 0.01 | 0.00 | 88 | 1015.1 |
| 20260508092122 | 50 | 337 | 1.7 | 2.6 | 0.00 | 0.01 | 0.00 | 88 | 1015.1 |
| 20260508092057 | 50 | 331 | 1.7 | 2.6 | 0.00 | 0.01 | 0.00 | 88 | 1015.2 |
| 20260508091830 | 49 | 327 | 1.7 | 2.6 | 0.00 | 0.01 | 0.00 | 88 | 1015.2 |
| 20260508091717 | 49 | 333 | 1.7 | 2.6 | 0.00 | 0.01 | 0.00 | 88 | 1015.2 |
| 20260508091645 | 50 | 333 | 1.7 | 2.6 | 0.00 | 0.01 | 0.00 | 88 | 1015.2 |
| 20260508091512 | 50 | 332 | 1.7 | 2.6 | 0.00 | 0.01 | 0.00 | 88 | 1015.1 |
| 20260508091443 | 50 | 341 | 0.9 | 2.6 | 0.00 | 0.01 | 0.00 | 88 | 1015.1 |
| 20260508091350 | 50 | 336 | 0.9 | 2.6 | 0.00 | 0.01 | 0.00 | 88 | 1015.1 |
| 20260508091216 | 50 | 338 | 0.9 | 2.6 | 0.00 | 0.01 | 0.00 | 88 | 1015.1 |
| 20260508091123 | 50 | 339 | 0.9 | 2.6 | 0.00 | 0.01 | 0.00 | 88 | 1015.1 |
| 20260508091011 | 50 | 333 | 1.7 | 2.6 | 0.00 | 0.01 | 0.00 | 87 | 1015.1 |
| 20260508090918 | 50 | 333 | 1.7 | 2.6 | 0.00 | 0.01 | 0.00 | 87 | 1015.1 |
| 20260508090829 | 50 | 346 | 1.7 | 2.6 | 0.00 | 0.01 | 0.00 | 87 | 1015.1 |
| 20260508090716 | 50 | 355 | 0.9 | 2.6 | 0.00 | 0.01 | 0.00 | 87 | 1015.1 |
| 20260508090622 | 50 | 340 | 0.9 | 2.6 | 0.00 | 0.01 | 0.00 | 87 | 1015.1 |
| 20260508090553 | 50 | 340 | 0.9 | 3.5 | 0.00 | 0.01 | 0.00 | 87 | 1015.1 |
| 20260508090346 | 50 | 340 | 0.9 | 3.5 | 0.00 | 0.01 | 0.00 | 87 | 1015.1 |
| 20260508090218 | 50 | 340 | 1.7 | 3.5 | 0.00 | 0.01 | 0.00 | 87 | 1015.1 |
| 20260508090126 | 50 | 5 | 1.7 | 3.5 | 0.00 | 0.01 | 0.00 | 87 | 1015.1 |
| 20260508090013 | 50 | 348 | 1.7 | 3.5 | 0.00 | 0.01 | 0.00 | 87 | 1015.1 |
| 20260508085921 | 50 | 336 | 1.7 | 3.5 | 0.00 | 0.01 | 0.00 | 87 | 1015.1 |
| 20260508085828 | 50 | 336 | 2.6 | 3.5 | 0.00 | 0.01 | 0.00 | 87 | 1015.1 |
| 20260508085720 | 50 | 341 | 2.6 | 3.5 | 0.00 | 0.01 | 0.00 | 87 | 1015.0 |
| 20260508085628 | 50 | 339 | 1.7 | 3.5 | 0.00 | 0.01 | 0.00 | 87 | 1015.2 |
| 20260508085515 | 50 | 355 | 1.7 | 3.5 | 0.00 | 0.01 | 0.00 | 87 | 1015.1 |
| 20260508085422 | 50 | 344 | 1.7 | 3.5 | 0.00 | 0.01 | 0.00 | 87 | 1015.1 |
| 20260508085330 | 50 | 344 | 1.7 | 3.5 | 0.00 | 0.01 | 0.00 | 87 | 1015.1 |
| 20260508085218 | 50 | 347 | 2.6 | 3.5 | 0.00 | 0.01 | 0.00 | 87 | 1015.1 |
| 20260508085150 | 50 | 345 | 2.6 | 3.5 | 0.00 | 0.01 | 0.00 | 87 | 1015.1 |
| 20260508085100 | 50 | 348 | 2.6 | 4.3 | 0.00 | 0.01 | 0.00 | 87 | 1015.0 |
| 20260508084814 | 50 | 346 | 2.6 | 4.3 | 0.00 | 0.01 | 0.00 | 87 | 1015.0 |
| 20260508084721 | 50 | 346 | 2.6 | 4.3 | 0.00 | 0.01 | 0.00 | 87 | 1015.0 |
| 20260508084613 | 50 | 344 | 2.6 | 4.3 | 0.00 | 0.01 | 0.00 | 87 | 1015.0 |
| 20260508084519 | 50 | 342 | 2.6 | 4.3 | 0.00 | 0.01 | 0.00 | 87 | 1015.0 |
| 20260508084445 | 51 | 340 | 2.6 | 4.3 | 0.00 | 0.01 | 0.00 | 87 | 1015.0 |
| 20260508084312 | 51 | 338 | 2.6 | 4.3 | 0.00 | 0.26 | 0.00 | 87 | 1015.0 |
| 20260508084240 | 51 | 340 | 2.6 | 3.5 | 0.00 | 0.26 | 0.00 | 87 | 1015.1 |
| 20260508084128 | 51 | 336 | 2.6 | 3.5 | 0.00 | 0.26 | 0.00 | 87 | 1015.1 |
| 20260508084015 | 51 | 348 | 2.6 | 3.5 | 0.00 | 0.26 | 0.00 | 87 | 1015.0 |
| 20260508083929 | 51 | 331 | 2.6 | 3.5 | 0.00 | 0.26 | 0.00 | 87 | 1015.0 |
| 20260508083815 | 51 | 348 | 2.6 | 3.5 | 0.00 | 0.26 | 0.00 | 87 | 1015.0 |
| 20260508083722 | 51 | 349 | 2.6 | 3.5 | 0.00 | 0.26 | 0.00 | 87 | 1015.0 |
| 20260508083630 | 51 | 342 | 2.6 | 3.5 | 0.00 | 0.26 | 0.00 | 88 | 1015.0 |
| 20260508083601 | 51 | 346 | 2.6 | 3.5 | 0.00 | 0.26 | 0.00 | 88 | 1015.0 |
| 20260508083318 | 51 | 331 | 2.6 | 3.5 | 0.00 | 0.26 | 0.00 | 89 | 1014.9 |
| 20260508083225 | 51 | 344 | 2.6 | 3.5 | 0.00 | 0.26 | 0.00 | 88 | 1014.9 |
| 20260508083114 | 51 | 348 | 2.6 | 3.5 | 0.00 | 0.26 | 0.00 | 89 | 1015.0 |
| 20260508083021 | 51 | 340 | 2.6 | 3.5 | 0.00 | 0.26 | 0.00 | 89 | 1015.0 |
| 20260508082946 | 51 | 355 | 2.6 | 3.5 | 0.00 | 0.26 | 0.00 | 89 | 1014.9 |
| 20260508082818 | 51 | 355 | 1.7 | 3.5 | 0.00 | 0.26 | 0.00 | 89 | 1014.9 |
| 20260508082725 | 51 | 360 | 1.7 | 3.5 | 0.00 | 0.26 | 0.00 | 88 | 1014.9 |
| 20260508082632 | 51 | 355 | 1.7 | 3.5 | 0.00 | 0.26 | 0.00 | 89 | 1015.0 |
| 20260508082519 | 51 | 5 | 1.7 | 3.5 | 0.00 | 0.26 | 0.00 | 89 | 1015.0 |
| 20260508082427 | 51 | 355 | 1.7 | 3.5 | 0.00 | 0.26 | 0.00 | 88 | 1014.9 |
| 20260508082315 | 51 | 355 | 1.7 | 4.3 | 0.00 | 0.26 | 0.00 | 88 | 1014.9 |
| 20260508082226 | 51 | 335 | 1.7 | 4.3 | 0.00 | 0.26 | 0.00 | 88 | 1014.9 |
| 20260508082114 | 51 | 15 | 1.7 | 4.3 | 0.00 | 0.26 | 0.00 | 87 | 1014.9 |
| 20260508082045 | 51 | 360 | 2.6 | 4.3 | 0.00 | 0.26 | 0.00 | 87 | 1014.9 |
| 20260508081818 | 51 | 350 | 2.6 | 4.3 | 0.00 | 0.26 | 0.00 | 85 | 1014.9 |
| 20260508081725 | 51 | 346 | 2.6 | 4.3 | 0.00 | 0.26 | 0.00 | 85 | 1014.9 |
| 20260508081616 | 51 | 344 | 2.6 | 4.3 | 0.00 | 0.26 | 0.00 | 85 | 1015.0 |
| 20260508081525 | 51 | 346 | 2.6 | 4.3 | 0.00 | 0.26 | 0.00 | 85 | 1015.0 |
| 20260508081412 | 51 | 339 | 2.6 | 4.3 | 0.00 | 0.26 | 0.00 | 85 | 1015.0 |
| 20260508081320 | 51 | 355 | 2.6 | 4.3 | 0.00 | 0.26 | 0.00 | 85 | 1015.0 |
| 20260508081227 | 51 | 343 | 2.6 | 4.3 | 0.00 | 0.26 | 0.00 | 85 | 1014.9 |
| 20260508081117 | 51 | 345 | 2.6 | 4.3 | 0.00 | 0.26 | 0.00 | 85 | 1014.9 |
| 20260508081025 | 51 | 346 | 1.7 | 4.3 | 0.00 | 0.26 | 0.00 | 85 | 1014.9 |
| 20260508080912 | 51 | 344 | 1.7 | 4.3 | 0.00 | 0.26 | 0.00 | 85 | 1014.9 |
| 20260508080820 | 51 | 351 | 2.6 | 4.3 | 0.00 | 0.26 | 0.00 | 85 | 1014.9 |
| 20260508080727 | 51 | 355 | 2.6 | 4.3 | 0.00 | 0.26 | 0.00 | 85 | 1014.8 |
| 20260508080619 | 51 | 355 | 2.6 | 4.3 | 0.00 | 0.26 | 0.00 | 85 | 1014.8 |
| 20260508080550 | 51 | 355 | 2.6 | 4.3 | 0.00 | 0.26 | 0.00 | 85 | 1014.8 |
| 20260508080323 | 51 | 342 | 2.6 | 3.5 | 0.00 | 0.26 | 0.00 | 85 | 1014.9 |
| 20260508080211 | 51 | 346 | 2.6 | 3.5 | 0.00 | 0.26 | 0.00 | 85 | 1014.9 |
| 20260508080118 | 51 | 346 | 1.7 | 3.5 | 0.00 | 0.26 | 0.00 | 85 | 1014.9 |
| 20260508080029 | 51 | 355 | 1.7 | 3.5 | 0.00 | 0.26 | 0.00 | 85 | 1014.9 |
| 20260508075916 | 51 | 355 | 2.6 | 3.5 | 0.00 | 0.26 | 0.00 | 85 | 1014.8 |
| 20260508075843 | 51 | 351 | 1.7 | 3.5 | 0.00 | 0.26 | 0.00 | 85 | 1014.8 |
| 20260508075729 | 51 | 12 | 2.6 | 3.5 | 0.00 | 0.26 | 0.00 | 85 | 1014.8 |
| 20260508075616 | 52 | 5 | 2.6 | 5.2 | 0.00 | 0.26 | 0.00 | 85 | 1014.9 |
| 20260508075523 | 52 | 5 | 1.7 | 5.2 | 0.00 | 0.26 | 0.00 | 85 | 1014.9 |
| 20260508075436 | 52 | 5 | 2.6 | 5.2 | 0.00 | 0.26 | 0.00 | 84 | 1014.8 |
| 20260508075323 | 52 | 355 | 2.6 | 5.2 | 0.00 | 0.26 | 0.00 | 84 | 1014.8 |
| 20260508075230 | 52 | 355 | 2.6 | 5.2 | 0.00 | 0.26 | 0.00 | 84 | 1014.8 |
| 20260508075137 | 52 | 355 | 2.6 | 5.2 | 0.00 | 0.26 | 0.00 | 84 | 1014.8 |
| 20260508075108 | 52 | 355 | 2.6 | 5.2 | 0.00 | 0.26 | 0.00 | 84 | 1014.8 |
| 20260508074845 | 52 | 5 | 3.5 | 5.2 | 0.00 | 0.26 | 0.00 | 84 | 1014.7 |
| 20260508074711 | 52 | 5 | 2.6 | 5.2 | 0.00 | 0.26 | 0.00 | 84 | 1014.6 |
| 20260508074620 | 52 | 18 | 2.6 | 5.2 | 0.00 | 0.26 | 0.00 | 84 | 1014.6 |
| 20260508074527 | 52 | 27 | 3.5 | 5.2 | 0.00 | 0.26 | 0.00 | 84 | 1014.8 |
| 20260508074414 | 52 | 11 | 3.5 | 5.2 | 0.00 | 0.31 | 0.00 | 84 | 1014.8 |
| 20260508074322 | 52 | 5 | 3.5 | 5.2 | 0.00 | 0.31 | 0.00 | 84 | 1014.8 |
| 20260508074234 | 52 | 15 | 3.5 | 5.2 | 0.00 | 0.31 | 0.00 | 84 | 1015.0 |
| 20260508074121 | 52 | 347 | 3.5 | 5.2 | 0.00 | 0.31 | 0.00 | 84 | 1015.0 |
| 20260508074029 | 52 | 5 | 3.5 | 5.2 | 0.00 | 0.31 | 0.00 | 84 | 1015.0 |
| 20260508073936 | 52 | 351 | 3.5 | 5.2 | 0.00 | 0.31 | 0.00 | 84 | 1015.0 |
| 20260508073824 | 52 | 345 | 3.5 | 5.2 | 0.00 | 0.31 | 0.00 | 84 | 1015.0 |
| 20260508073712 | 52 | 355 | 3.5 | 5.2 | 0.00 | 0.31 | 0.00 | 84 | 1015.0 |
| 20260508073624 | 52 | 351 | 3.5 | 5.2 | 0.00 | 0.31 | 0.00 | 84 | 1015.0 |
| 20260508073554 | 52 | 341 | 3.5 | 5.2 | 0.00 | 0.31 | 0.00 | 84 | 1015.1 |
| 20260508073326 | 52 | 349 | 3.5 | 5.2 | 0.00 | 0.31 | 0.00 | 84 | 1015.0 |
| 20260508073214 | 52 | 345 | 3.5 | 4.3 | 0.00 | 0.31 | 0.00 | 84 | 1015.0 |
| 20260508073126 | 52 | 355 | 3.5 | 4.3 | 0.00 | 0.31 | 0.00 | 83 | 1015.0 |
| 20260508073033 | 52 | 339 | 2.6 | 4.3 | 0.00 | 0.31 | 0.00 | 83 | 1014.9 |
| 20260508072920 | 52 | 344 | 2.6 | 4.3 | 0.00 | 0.31 | 0.00 | 83 | 1014.9 |
| 20260508072827 | 52 | 355 | 2.6 | 4.3 | 0.00 | 0.31 | 0.00 | 84 | 1014.9 |
| 20260508072716 | 52 | 355 | 3.5 | 4.3 | 0.00 | 0.31 | 0.00 | 84 | 1014.9 |
| 20260508072624 | 52 | 335 | 3.5 | 4.3 | 0.00 | 0.31 | 0.00 | 84 | 1014.9 |
| 20260508072515 | 52 | 336 | 3.5 | 4.3 | 0.00 | 0.31 | 0.00 | 84 | 1015.0 |
| 20260508072423 | 52 | 335 | 3.5 | 4.3 | 0.00 | 0.31 | 0.00 | 84 | 1015.0 |
| 20260508072330 | 52 | 355 | 3.5 | 4.3 | 0.00 | 0.31 | 0.00 | 84 | 1015.0 |
| 20260508072218 | 52 | 347 | 2.6 | 4.3 | 0.00 | 0.31 | 0.00 | 84 | 1015.0 |
| 20260508072124 | 52 | 331 | 2.6 | 4.3 | 0.00 | 0.31 | 0.00 | 84 | 1015.0 |
| 20260508072058 | 52 | 344 | 2.6 | 3.5 | 0.00 | 0.31 | 0.00 | 84 | 1015.0 |
| 20260508071812 | 52 | 343 | 2.6 | 3.5 | 0.00 | 0.31 | 0.00 | 84 | 1015.0 |
| 20260508071721 | 52 | 344 | 1.7 | 3.5 | 0.00 | 0.31 | 0.00 | 84 | 1015.0 |
| 20260508071627 | 52 | 348 | 1.7 | 3.5 | 0.00 | 0.31 | 0.00 | 84 | 1015.0 |
| 20260508071515 | 52 | 360 | 1.7 | 3.5 | 0.00 | 0.31 | 0.00 | 84 | 1014.9 |
| 20260508071428 | 52 | 333 | 1.7 | 3.5 | 0.00 | 0.31 | 0.00 | 84 | 1014.9 |
| 20260508071315 | 52 | 350 | 1.7 | 2.6 | 0.00 | 0.31 | 0.00 | 84 | 1015.0 |
| 20260508071243 | 52 | 5 | 2.6 | 2.6 | 0.00 | 0.31 | 0.00 | 84 | 1015.0 |
| 20260508071150 | 52 | 9 | 1.7 | 2.6 | 0.00 | 0.31 | 0.00 | 84 | 1015.0 |
| 20260508071037 | 52 | 348 | 1.7 | 2.6 | 0.00 | 0.31 | 0.00 | 84 | 1015.0 |
| 20260508070923 | 52 | 355 | 1.7 | 2.6 | 0.00 | 0.31 | 0.00 | 84 | 1015.0 |
| 20260508070814 | 52 | 341 | 1.7 | 2.6 | 0.00 | 0.31 | 0.00 | 84 | 1015.1 |
| 20260508070722 | 52 | 336 | 1.7 | 2.6 | 0.00 | 0.31 | 0.00 | 84 | 1015.1 |
| 20260508070630 | 52 | 338 | 1.7 | 2.6 | 0.00 | 0.31 | 0.00 | 84 | 1015.0 |
| 20260508070559 | 52 | 346 | 1.7 | 2.6 | 0.00 | 0.31 | 0.00 | 84 | 1015.1 |
| 20260508070313 | 52 | 348 | 1.7 | 2.6 | 0.00 | 0.31 | 0.00 | 83 | 1015.2 |
| 20260508070225 | 52 | 342 | 1.7 | 2.6 | 0.00 | 0.31 | 0.00 | 83 | 1015.2 |
| 20260508070133 | 52 | 344 | 1.7 | 2.6 | 0.00 | 0.31 | 0.00 | 83 | 1015.2 |
| 20260508070020 | 52 | 348 | 1.7 | 2.6 | 0.00 | 0.31 | 0.00 | 83 | 1015.2 |
| 20260508065927 | 52 | 339 | 1.7 | 2.6 | 0.00 | 0.31 | 0.00 | 83 | 1015.2 |
| 20260508065835 | 52 | 348 | 1.7 | 2.6 | 0.00 | 0.31 | 0.00 | 83 | 1015.2 |
| 20260508065721 | 52 | 346 | 1.7 | 2.6 | 0.00 | 0.31 | 0.00 | 83 | 1015.2 |
| 20260508065612 | 52 | 346 | 1.7 | 2.6 | 0.00 | 0.31 | 0.00 | 83 | 1015.2 |
| 20260508065519 | 52 | 342 | 1.7 | 2.6 | 0.00 | 0.31 | 0.00 | 83 | 1015.2 |
| 20260508065427 | 52 | 355 | 1.7 | 2.6 | 0.00 | 0.31 | 0.00 | 83 | 1015.2 |
| 20260508065314 | 52 | 355 | 1.7 | 2.6 | 0.00 | 0.31 | 0.00 | 83 | 1015.2 |
| 20260508065221 | 52 | 348 | 1.7 | 2.6 | 0.00 | 0.31 | 0.00 | 83 | 1015.2 |
| 20260508065128 | 52 | 355 | 0.9 | 2.6 | 0.00 | 0.31 | 0.00 | 84 | 1015.1 |
| 20260508065103 | 52 | 346 | 0.9 | 2.6 | 0.00 | 0.31 | 0.00 | 83 | 1015.1 |
| 20260508064817 | 52 | 345 | 1.7 | 3.5 | 0.00 | 0.31 | 0.00 | 84 | 1015.1 |
| 20260508064723 | 52 | 351 | 1.7 | 3.5 | 0.00 | 0.31 | 0.00 | 84 | 1015.1 |
| 20260508064611 | 52 | 355 | 1.7 | 3.5 | 0.00 | 0.31 | 0.00 | 84 | 1015.2 |
| 20260508064542 | 52 | 355 | 1.7 | 3.5 | 0.00 | 0.31 | 0.00 | 84 | 1015.2 |
| 20260508064326 | 52 | 5 | 1.7 | 3.5 | 0.00 | 0.31 | 0.00 | 84 | 1015.2 |
| 20260508064213 | 52 | 9 | 1.7 | 3.5 | 0.00 | 0.31 | 0.00 | 84 | 1015.2 |
| 20260508064121 | 52 | 13 | 1.7 | 3.5 | 0.00 | 0.31 | 0.00 | 84 | 1015.2 |
| 20260508064028 | 52 | 9 | 1.7 | 3.5 | 0.00 | 0.31 | 0.00 | 84 | 1015.1 |
| 20260508063919 | 52 | 5 | 1.7 | 3.5 | 0.00 | 0.31 | 0.00 | 84 | 1015.2 |
| 20260508063827 | 52 | 9 | 1.7 | 3.5 | 0.00 | 0.31 | 0.00 | 84 | 1015.1 |
| 20260508063713 | 52 | 355 | 1.7 | 2.6 | 0.00 | 0.31 | 0.00 | 84 | 1015.2 |
| 20260508063621 | 52 | 13 | 1.7 | 2.6 | 0.00 | 0.31 | 0.00 | 84 | 1015.2 |
| 20260508063552 | 52 | 14 | 1.7 | 2.6 | 0.00 | 0.31 | 0.00 | 84 | 1015.3 |
| 20260508063330 | 52 | 360 | 1.7 | 2.6 | 0.00 | 0.31 | 0.00 | 83 | 1015.3 |
| 20260508063218 | 53 | 5 | 1.7 | 2.6 | 0.00 | 0.31 | 0.00 | 83 | 1015.2 |
| 20260508063125 | 53 | 5 | 1.7 | 2.6 | 0.00 | 0.31 | 0.00 | 83 | 1015.2 |
| 20260508063012 | 53 | 360 | 0.9 | 2.6 | 0.00 | 0.31 | 0.00 | 83 | 1015.3 |
| 20260508062919 | 53 | 24 | 0.9 | 2.6 | 0.00 | 0.31 | 0.00 | 83 | 1015.4 |
| 20260508062811 | 53 | 30 | 0.9 | 3.5 | 0.00 | 0.31 | 0.00 | 82 | 1015.4 |
| 20260508062718 | 53 | 22 | 0.9 | 3.5 | 0.00 | 0.31 | 0.00 | 83 | 1015.3 |
| 20260508062626 | 53 | 14 | 0.9 | 3.5 | 0.00 | 0.31 | 0.00 | 82 | 1015.3 |
| 20260508062514 | 53 | 15 | 0.9 | 3.5 | 0.00 | 0.31 | 0.00 | 82 | 1015.4 |
| 20260508062421 | 53 | 19 | 0.9 | 3.5 | 0.00 | 0.31 | 0.00 | 82 | 1015.4 |
| 20260508062313 | 53 | 5 | 1.7 | 3.5 | 0.00 | 0.31 | 0.00 | 82 | 1015.4 |
| 20260508062221 | 53 | 5 | 1.7 | 3.5 | 0.00 | 0.31 | 0.00 | 82 | 1015.4 |
| 20260508062129 | 53 | 5 | 1.7 | 3.5 | 0.00 | 0.31 | 0.00 | 82 | 1015.5 |
| 20260508062059 | 53 | 14 | 1.7 | 3.5 | 0.00 | 0.31 | 0.00 | 82 | 1015.5 |
| 20260508061813 | 53 | 355 | 1.7 | 2.6 | 0.00 | 0.31 | 0.00 | 82 | 1015.6 |
| 20260508061744 | 53 | 355 | 1.7 | 2.6 | 0.00 | 0.31 | 0.00 | 82 | 1015.6 |
| 20260508061611 | 53 | 5 | 1.7 | 2.6 | 0.00 | 0.31 | 0.00 | 82 | 1015.5 |
| 20260508061518 | 53 | 360 | 1.7 | 2.6 | 0.00 | 0.31 | 0.00 | 82 | 1015.5 |
| 20260508061426 | 53 | 5 | 0.9 | 2.6 | 0.00 | 0.31 | 0.00 | 82 | 1015.5 |
| 20260508061313 | 53 | 355 | 0.9 | 2.6 | 0.00 | 0.31 | 0.00 | 82 | 1015.5 |
| 20260508061220 | 53 | 355 | 1.7 | 2.6 | 0.00 | 0.31 | 0.00 | 82 | 1015.5 |
| 20260508061131 | 53 | 346 | 0.9 | 2.6 | 0.00 | 0.31 | 0.00 | 82 | 1015.5 |
| 20260508061017 | 53 | 355 | 0.9 | 2.6 | 0.00 | 0.31 | 0.00 | 82 | 1015.5 |
| 20260508060925 | 53 | 355 | 1.7 | 2.6 | 0.00 | 0.31 | 0.00 | 82 | 1015.5 |
| 20260508060811 | 53 | 351 | 0.9 | 2.6 | 0.00 | 0.31 | 0.00 | 82 | 1015.5 |
| 20260508060739 | 53 | 5 | 0.9 | 2.6 | 0.00 | 0.31 | 0.00 | 82 | 1015.5 |
| 20260508060559 | 53 | 5 | 0.9 | 2.6 | 0.00 | 0.31 | 0.00 | 82 | 1015.5 |
| 20260508060311 | 53 | 5 | 0.9 | 2.6 | 0.00 | 0.31 | 0.00 | 82 | 1015.5 |
| 20260508060219 | 53 | 355 | 1.7 | 2.6 | 0.00 | 0.31 | 0.00 | 83 | 1015.5 |
| 20260508060128 | 53 | 355 | 1.7 | 2.6 | 0.00 | 0.31 | 0.00 | 83 | 1015.5 |
| 20260508060018 | 53 | 360 | 1.7 | 2.6 | 0.00 | 0.31 | 0.00 | 83 | 1015.6 |
| 20260508055926 | 53 | 335 | 1.7 | 2.6 | 0.00 | 0.31 | 0.00 | 83 | 1015.6 |
| 20260508055813 | 53 | 355 | 1.7 | 2.6 | 0.00 | 0.31 | 0.00 | 83 | 1015.6 |
| 20260508055720 | 53 | 341 | 1.7 | 2.6 | 0.00 | 0.31 | 0.00 | 83 | 1015.6 |
| 20260508055629 | 53 | 346 | 1.7 | 2.6 | 0.00 | 0.31 | 0.00 | 83 | 1015.6 |
| 20260508055521 | 53 | 347 | 0.9 | 2.6 | 0.00 | 0.31 | 0.00 | 83 | 1015.5 |
| 20260508055427 | 53 | 343 | 0.9 | 2.6 | 0.00 | 0.31 | 0.00 | 83 | 1015.5 |
| 20260508055314 | 53 | 355 | 0.9 | 2.6 | 0.00 | 0.31 | 0.00 | 83 | 1015.5 |
| 20260508055243 | 53 | 355 | 0.9 | 2.6 | 0.00 | 0.31 | 0.00 | 83 | 1015.5 |
| 20260508055149 | 53 | 5 | 0.9 | 2.6 | 0.00 | 0.31 | 0.00 | 83 | 1015.4 |
| 20260508055119 | 53 | 5 | 0.9 | 2.6 | 0.00 | 0.31 | 0.00 | 82 | 1015.5 |
| 20260508054815 | 53 | 355 | 0.9 | 2.6 | 0.00 | 0.31 | 0.00 | 82 | 1015.5 |
| 20260508054743 | 53 | 355 | 0.9 | 2.6 | 0.00 | 0.31 | 0.00 | 82 | 1015.5 |
| 20260508054629 | 53 | 360 | 1.7 | 2.6 | 0.00 | 0.31 | 0.00 | 82 | 1015.6 |
| 20260508054516 | 53 | 360 | 1.7 | 2.6 | 0.00 | 0.31 | 0.00 | 82 | 1015.6 |
| 20260508054423 | 53 | 355 | 1.7 | 2.6 | 0.00 | 0.31 | 0.00 | 83 | 1015.6 |
| 20260508054312 | 54 | 355 | 1.7 | 2.6 | 0.00 | 0.31 | 0.31 | 82 | 1015.7 |
| 20260508054221 | 54 | 355 | 1.7 | 2.6 | 0.00 | 0.31 | 0.31 | 83 | 1015.7 |
| 20260508054128 | 54 | 355 | 1.7 | 2.6 | 0.00 | 0.31 | 0.31 | 83 | 1015.7 |
| 20260508054016 | 54 | 333 | 0.9 | 2.6 | 0.00 | 0.31 | 0.31 | 83 | 1015.7 |
| 20260508053923 | 54 | 345 | 1.7 | 3.5 | 0.00 | 0.31 | 0.31 | 83 | 1015.7 |
| 20260508053811 | 54 | 330 | 1.7 | 3.5 | 0.00 | 0.31 | 0.31 | 83 | 1015.8 |
| 20260508053723 | 54 | 342 | 1.7 | 3.5 | 0.00 | 0.31 | 0.31 | 83 | 1015.8 |
| 20260508053630 | 54 | 335 | 1.7 | 3.5 | 0.00 | 0.31 | 0.31 | 83 | 1015.7 |
| 20260508053601 | 54 | 336 | 1.7 | 3.5 | 0.00 | 0.31 | 0.31 | 83 | 1015.8 |
| 20260508053314 | 54 | 332 | 1.7 | 3.5 | 0.00 | 0.31 | 0.31 | 83 | 1015.6 |
| 20260508053243 | 54 | 344 | 1.7 | 3.5 | 0.00 | 0.31 | 0.31 | 83 | 1015.7 |
| 20260508053113 | 54 | 351 | 1.7 | 3.5 | 0.00 | 0.31 | 0.31 | 83 | 1015.6 |
| 20260508053021 | 54 | 348 | 1.7 | 3.5 | 0.00 | 0.31 | 0.31 | 83 | 1015.6 |
| 20260508052928 | 54 | 323 | 1.7 | 3.5 | 0.00 | 0.31 | 0.31 | 83 | 1015.6 |
| 20260508052816 | 54 | 333 | 1.7 | 2.6 | 0.00 | 0.31 | 0.31 | 83 | 1015.7 |
| 20260508052723 | 54 | 345 | 1.7 | 2.6 | 0.00 | 0.31 | 0.31 | 83 | 1015.7 |
| 20260508052614 | 54 | 338 | 1.7 | 2.6 | 0.00 | 0.31 | 0.31 | 83 | 1015.7 |
| 20260508052522 | 54 | 350 | 0.9 | 2.6 | 0.00 | 0.31 | 0.31 | 83 | 1015.7 |
| 20260508052430 | 54 | 340 | 0.9 | 2.6 | 0.00 | 0.31 | 0.31 | 83 | 1015.6 |
| 20260508052318 | 54 | 336 | 1.7 | 2.6 | 0.00 | 0.31 | 0.31 | 83 | 1015.6 |
| 20260508052225 | 54 | 355 | 1.7 | 3.5 | 0.00 | 0.31 | 0.31 | 83 | 1015.6 |
| 20260508052131 | 54 | 348 | 0.9 | 3.5 | 0.00 | 0.31 | 0.31 | 84 | 1015.6 |
| 20260508052105 | 54 | 347 | 0.9 | 3.5 | 0.00 | 0.31 | 0.31 | 84 | 1015.5 |
| 20260508051817 | 54 | 344 | 0.9 | 3.5 | 0.00 | 0.31 | 0.31 | 84 | 1015.5 |
| 20260508051723 | 54 | 342 | 0.9 | 3.5 | 0.00 | 0.31 | 0.31 | 84 | 1015.5 |
| 20260508051630 | 54 | 343 | 1.7 | 3.5 | 0.00 | 0.31 | 0.31 | 84 | 1015.5 |
| 20260508051523 | 54 | 348 | 1.7 | 3.5 | 0.00 | 0.31 | 0.31 | 85 | 1015.5 |
| 20260508051430 | 54 | 355 | 1.7 | 3.5 | 0.00 | 0.31 | 0.31 | 85 | 1015.6 |
| 20260508051318 | 54 | 355 | 1.7 | 3.5 | 0.00 | 0.31 | 0.31 | 85 | 1015.6 |
| 20260508051224 | 54 | 338 | 1.7 | 2.6 | 0.00 | 0.31 | 0.31 | 85 | 1015.6 |
| 20260508051131 | 54 | 355 | 0.9 | 2.6 | 0.00 | 0.31 | 0.31 | 86 | 1015.8 |
| 20260508051019 | 54 | 331 | 0.9 | 2.6 | 0.00 | 0.31 | 0.31 | 86 | 1015.6 |
| 20260508050930 | 54 | 335 | 0.0 | 2.6 | 0.00 | 0.31 | 0.31 | 86 | 1015.6 |
| 20260508050816 | 54 | 317 | 0.0 | 2.6 | 0.00 | 0.31 | 0.31 | 86 | 1015.7 |
| 20260508050744 | 54 | 319 | 0.9 | 2.6 | 0.00 | 0.31 | 0.31 | 86 | 1015.7 |
| 20260508050652 | 54 | 309 | 0.9 | 2.6 | 0.00 | 0.31 | 0.31 | 86 | 1015.6 |
| 20260508050601 | 54 | 309 | 1.7 | 2.6 | 0.00 | 0.31 | 0.31 | 86 | 1015.8 |
| 20260508050317 | 54 | 333 | 1.7 | 2.6 | 0.00 | 0.31 | 0.31 | 85 | 1015.6 |
| 20260508050225 | 54 | 332 | 0.9 | 2.6 | 0.00 | 0.31 | 0.31 | 86 | 1015.6 |
| 20260508050112 | 54 | 342 | 0.9 | 2.6 | 0.00 | 0.31 | 0.31 | 86 | 1015.5 |
| 20260508050019 | 54 | 340 | 1.7 | 2.6 | 0.00 | 0.31 | 0.31 | 86 | 1015.5 |
| 20260508045927 | 54 | 326 | 1.7 | 2.6 | 0.00 | 0.31 | 0.31 | 86 | 1015.5 |
| 20260508045835 | 54 | 343 | 0.9 | 2.6 | 0.00 | 0.31 | 0.31 | 86 | 1015.5 |
| 20260508045725 | 54 | 339 | 1.7 | 2.6 | 0.00 | 0.31 | 0.31 | 86 | 1015.5 |
| 20260508045613 | 54 | 346 | 1.7 | 2.6 | 0.00 | 0.31 | 0.31 | 86 | 1015.6 |
| 20260508045522 | 54 | 330 | 1.7 | 2.6 | 0.00 | 0.31 | 0.31 | 86 | 1015.6 |
| 20260508045449 | 54 | 331 | 1.7 | 2.6 | 0.00 | 0.31 | 0.31 | 86 | 1015.6 |
| 20260508045315 | 54 | 338 | 0.9 | 1.7 | 0.00 | 0.31 | 0.31 | 86 | 1015.5 |
| 20260508045222 | 54 | 337 | 0.9 | 1.7 | 0.00 | 0.31 | 0.31 | 86 | 1015.5 |
| 20260508045134 | 54 | 335 | 0.0 | 1.7 | 0.00 | 0.31 | 0.31 | 86 | 1015.5 |
| 20260508045104 | 54 | 341 | 0.9 | 1.7 | 0.00 | 0.31 | 0.31 | 86 | 1015.5 |
| 20260508044817 | 54 | 346 | 0.9 | 1.7 | 0.00 | 0.31 | 0.31 | 86 | 1015.4 |
| 20260508044724 | 54 | 346 | 0.9 | 2.6 | 0.00 | 0.31 | 0.31 | 86 | 1015.4 |
| 20260508044616 | 54 | 347 | 0.9 | 2.6 | 0.00 | 0.31 | 0.31 | 87 | 1015.4 |
| 20260508044522 | 54 | 344 | 0.9 | 2.6 | 0.00 | 0.31 | 0.31 | 87 | 1015.4 |
| 20260508044429 | 54 | 347 | 0.9 | 2.6 | 0.00 | 0.31 | 0.31 | 87 | 1015.4 |
| 20260508044316 | 54 | 346 | 0.9 | 2.6 | 0.00 | 0.31 | 0.31 | 87 | 1015.4 |
| 20260508044244 | 54 | 340 | 0.9 | 2.6 | 0.00 | 0.31 | 0.31 | 87 | 1015.4 |
| 20260508044131 | 54 | 340 | 0.9 | 2.6 | 0.00 | 0.31 | 0.31 | 87 | 1015.4 |
| 20260508044022 | 54 | 341 | 0.9 | 2.6 | 0.00 | 0.31 | 0.31 | 87 | 1015.3 |
| 20260508043930 | 54 | 342 | 0.9 | 2.6 | 0.00 | 0.31 | 0.31 | 87 | 1015.5 |
| 20260508043818 | 54 | 346 | 0.9 | 1.7 | 0.00 | 0.31 | 0.31 | 87 | 1015.4 |
| 20260508043725 | 54 | 355 | 0.0 | 1.7 | 0.00 | 0.31 | 0.31 | 87 | 1015.4 |
| 20260508043611 | 54 | 355 | 0.0 | 1.7 | 0.00 | 0.31 | 0.31 | 87 | 1015.3 |
| 20260508043545 | 54 | 360 | 0.0 | 1.7 | 0.00 | 0.31 | 0.31 | 86 | 1015.3 |
| 20260508043319 | 54 | 360 | 0.9 | 1.7 | 0.00 | 0.31 | 0.31 | 86 | 1015.3 |
| 20260508043227 | 54 | 360 | 0.9 | 1.7 | 0.00 | 0.31 | 0.31 | 86 | 1015.3 |
| 20260508043114 | 54 | 360 | 0.9 | 1.7 | 0.00 | 0.31 | 0.31 | 86 | 1015.3 |
| 20260508043041 | 54 | 360 | 0.9 | 2.6 | 0.00 | 0.31 | 0.31 | 86 | 1015.3 |
| 20260508042911 | 54 | 360 | 0.9 | 2.6 | 0.00 | 0.31 | 0.31 | 86 | 1015.3 |
| 20260508042819 | 54 | 360 | 0.9 | 2.6 | 0.00 | 0.31 | 0.31 | 86 | 1015.3 |
| 20260508042725 | 54 | 360 | 0.9 | 2.6 | 0.00 | 0.31 | 0.31 | 86 | 1015.3 |
| 20260508042612 | 54 | 360 | 0.9 | 2.6 | 0.00 | 0.31 | 0.31 | 86 | 1015.3 |
| 20260508042520 | 54 | 360 | 0.9 | 2.6 | 0.00 | 0.31 | 0.31 | 86 | 1015.4 |
| 20260508042447 | 54 | 360 | 0.9 | 2.6 | 0.00 | 0.31 | 0.31 | 86 | 1015.4 |
| 20260508042318 | 54 | 360 | 0.9 | 2.6 | 0.00 | 0.31 | 0.31 | 86 | 1015.4 |
| 20260508042225 | 54 | 360 | 0.9 | 2.6 | 0.00 | 0.31 | 0.31 | 86 | 1015.4 |
| 20260508042133 | 54 | 360 | 0.9 | 2.6 | 0.00 | 0.31 | 0.31 | 87 | 1015.3 |
| 20260508042104 | 54 | 360 | 0.9 | 2.6 | 0.00 | 0.31 | 0.31 | 87 | 1015.4 |
| 20260508041821 | 54 | 344 | 0.0 | 0.0 | 0.00 | 0.31 | 0.31 | 87 | 1015.3 |
| 20260508041750 | 54 | 344 | 0.0 | 0.0 | 0.00 | 0.31 | 0.31 | 86 | 1015.3 |
| 20260508041618 | 54 | 344 | 0.0 | 0.0 | 0.00 | 0.31 | 0.31 | 86 | 1015.4 |
| 20260508041544 | 54 | 344 | 0.0 | 0.0 | 0.00 | 0.31 | 0.31 | 86 | 1015.4 |
| 20260508041411 | 54 | 344 | 0.0 | 0.0 | 0.00 | 0.31 | 0.31 | 86 | 1015.5 |
| 20260508041339 | 54 | 344 | 0.0 | 0.0 | 0.00 | 0.31 | 0.31 | 86 | 1015.5 |
| 20260508041226 | 54 | 344 | 0.0 | 0.0 | 0.00 | 0.31 | 0.31 | 86 | 1015.5 |
| 20260508041117 | 54 | 344 | 0.0 | 0.0 | 0.00 | 0.31 | 0.31 | 86 | 1015.5 |
| 20260508041025 | 54 | 344 | 0.0 | 0.0 | 0.00 | 0.31 | 0.31 | 86 | 1015.5 |
| 20260508040913 | 54 | 344 | 0.0 | 0.0 | 0.00 | 0.31 | 0.31 | 86 | 1015.5 |
| 20260508040821 | 54 | 344 | 0.0 | 0.9 | 0.00 | 0.31 | 0.31 | 86 | 1015.5 |
| 20260508040729 | 54 | 344 | 0.0 | 0.9 | 0.00 | 0.31 | 0.31 | 86 | 1015.6 |
| 20260508040621 | 54 | 343 | 0.0 | 0.9 | 0.00 | 0.31 | 0.31 | 86 | 1015.5 |
| 20260508040551 | 54 | 343 | 0.0 | 0.9 | 0.00 | 0.31 | 0.31 | 86 | 1015.5 |
| 20260508040325 | 54 | 333 | 0.0 | 0.9 | 0.00 | 0.31 | 0.31 | 86 | 1015.4 |
| 20260508040211 | 55 | 329 | 0.0 | 0.9 | 0.00 | 0.31 | 0.31 | 86 | 1015.4 |
| 20260508040120 | 55 | 329 | 0.0 | 0.9 | 0.00 | 0.31 | 0.31 | 86 | 1015.5 |
| 20260508040030 | 55 | 329 | 0.0 | 0.9 | 0.00 | 0.31 | 0.31 | 86 | 1015.5 |
| 20260508035916 | 55 | 329 | 0.0 | 1.7 | 0.00 | 0.31 | 0.31 | 86 | 1015.4 |
| 20260508035844 | 55 | 321 | 0.0 | 1.7 | 0.00 | 0.31 | 0.31 | 87 | 1015.4 |
| 20260508035730 | 55 | 311 | 0.0 | 1.7 | 0.00 | 0.31 | 0.31 | 86 | 1015.5 |
| 20260508035617 | 55 | 305 | 0.0 | 1.7 | 0.00 | 0.31 | 0.31 | 87 | 1015.5 |
| 20260508035546 | 55 | 305 | 0.0 | 1.7 | 0.00 | 0.31 | 0.31 | 87 | 1015.5 |
| 20260508035437 | 55 | 299 | 0.0 | 1.7 | 0.00 | 0.31 | 0.31 | 87 | 1015.5 |
| 20260508035324 | 55 | 300 | 0.0 | 1.7 | 0.00 | 0.31 | 0.31 | 86 | 1015.5 |
| 20260508035252 | 55 | 319 | 0.0 | 1.7 | 0.00 | 0.31 | 0.31 | 86 | 1015.5 |
| 20260508035138 | 55 | 319 | 0.0 | 1.7 | 0.00 | 0.31 | 0.31 | 86 | 1015.4 |
| 20260508035046 | 55 | 319 | 0.0 | 0.9 | 0.00 | 0.31 | 0.31 | 86 | 1015.5 |
| 20260508034839 | 55 | 316 | 0.0 | 0.9 | 0.00 | 0.31 | 0.31 | 86 | 1015.4 |
| 20260508034745 | 55 | 316 | 0.0 | 0.9 | 0.00 | 0.31 | 0.31 | 86 | 1015.4 |
| 20260508034616 | 55 | 294 | 0.0 | 0.9 | 0.00 | 0.31 | 0.31 | 86 | 1015.4 |
| 20260508034523 | 55 | 294 | 0.0 | 0.9 | 0.00 | 0.31 | 0.31 | 86 | 1015.4 |
| 20260508034450 | 55 | 294 | 0.0 | 0.9 | 0.00 | 0.31 | 0.31 | 86 | 1015.4 |
| 20260508034316 | 55 | 294 | 0.0 | 0.9 | 0.00 | 0.35 | 0.31 | 85 | 1015.4 |
| 20260508034223 | 55 | 294 | 0.0 | 0.9 | 0.00 | 0.35 | 0.31 | 85 | 1015.4 |
| 20260508034114 | 55 | 294 | 0.0 | 0.9 | 0.00 | 0.35 | 0.31 | 85 | 1015.4 |
| 20260508034022 | 55 | 294 | 0.0 | 0.9 | 0.00 | 0.35 | 0.31 | 85 | 1015.4 |
| 20260508033951 | 55 | 294 | 0.0 | 0.0 | 0.00 | 0.35 | 0.31 | 85 | 1015.4 |
| 20260508033818 | 55 | 294 | 0.0 | 0.0 | 0.00 | 0.35 | 0.31 | 85 | 1015.3 |
| 20260508033725 | 55 | 294 | 0.0 | 0.0 | 0.00 | 0.35 | 0.31 | 85 | 1015.3 |
| 20260508033613 | 56 | 294 | 0.0 | 1.7 | 0.00 | 0.35 | 0.31 | 85 | 1015.4 |
| 20260508033548 | 56 | 294 | 0.0 | 1.7 | 0.00 | 0.35 | 0.31 | 85 | 1015.4 |
| 20260508033342 | 56 | 294 | 0.0 | 1.7 | 0.00 | 0.35 | 0.31 | 84 | 1015.5 |
| 20260508033228 | 56 | 294 | 0.0 | 1.7 | 0.00 | 0.35 | 0.31 | 84 | 1015.5 |
| 20260508033116 | 56 | 294 | 0.0 | 1.7 | 0.00 | 0.35 | 0.31 | 84 | 1015.5 |
| 20260508033025 | 56 | 294 | 0.0 | 1.7 | 0.00 | 0.35 | 0.31 | 84 | 1015.5 |
| 20260508032916 | 56 | 294 | 0.9 | 1.7 | 0.00 | 0.35 | 0.31 | 84 | 1015.5 |
| 20260508032824 | 56 | 294 | 0.9 | 2.6 | 0.00 | 0.35 | 0.31 | 83 | 1015.5 |
| 20260508032712 | 56 | 294 | 0.9 | 2.6 | 0.00 | 0.35 | 0.31 | 83 | 1015.5 |
| 20260508032640 | 56 | 294 | 0.9 | 2.6 | 0.00 | 0.35 | 0.31 | 83 | 1015.3 |
| 20260508032527 | 56 | 294 | 0.9 | 2.6 | 0.00 | 0.35 | 0.31 | 83 | 1015.3 |
| 20260508032415 | 56 | 299 | 0.0 | 2.6 | 0.00 | 0.35 | 0.31 | 83 | 1015.3 |
| 20260508032346 | 56 | 325 | 0.0 | 2.6 | 0.00 | 0.35 | 0.31 | 83 | 1015.3 |
| 20260508032213 | 56 | 327 | 0.9 | 2.6 | 0.00 | 0.35 | 0.31 | 83 | 1015.4 |
| 20260508032121 | 56 | 331 | 0.9 | 2.6 | 0.00 | 0.35 | 0.31 | 83 | 1015.3 |
| 20260508032052 | 56 | 331 | 1.7 | 2.6 | 0.00 | 0.35 | 0.31 | 82 | 1015.3 |
| 20260508031825 | 56 | 348 | 1.7 | 2.6 | 0.00 | 0.35 | 0.31 | 82 | 1015.4 |
| 20260508031718 | 56 | 346 | 1.7 | 1.7 | 0.00 | 0.35 | 0.31 | 82 | 1015.4 |
| 20260508031625 | 56 | 346 | 0.9 | 1.7 | 0.00 | 0.35 | 0.31 | 82 | 1015.4 |
| 20260508031534 | 57 | 346 | 0.9 | 2.6 | 0.00 | 0.35 | 0.31 | 82 | 1015.4 |
| 20260508031440 | 56 | 346 | 0.9 | 2.6 | 0.00 | 0.35 | 0.31 | 81 | 1015.5 |
| 20260508031326 | 57 | 346 | 0.9 | 2.6 | 0.00 | 0.35 | 0.31 | 81 | 1015.5 |
| 20260508031213 | 57 | 346 | 0.9 | 2.6 | 0.00 | 0.35 | 0.31 | 81 | 1015.4 |
| 20260508031125 | 57 | 347 | 1.7 | 2.6 | 0.00 | 0.35 | 0.31 | 81 | 1015.4 |
| 20260508031013 | 57 | 347 | 0.9 | 2.6 | 0.00 | 0.35 | 0.31 | 81 | 1015.2 |
| 20260508030942 | 57 | 346 | 1.7 | 2.6 | 0.00 | 0.35 | 0.31 | 81 | 1015.3 |
| 20260508030848 | 57 | 346 | 1.7 | 2.6 | 0.00 | 0.35 | 0.31 | 81 | 1015.3 |
| 20260508030713 | 57 | 340 | 1.7 | 2.6 | 0.00 | 0.35 | 0.31 | 81 | 1015.2 |
| 20260508030622 | 57 | 339 | 1.7 | 2.6 | 0.00 | 0.35 | 0.31 | 81 | 1015.2 |
| 20260508030555 | 57 | 340 | 1.7 | 2.6 | 0.00 | 0.35 | 0.31 | 81 | 1015.2 |
| 20260508030329 | 57 | 331 | 0.9 | 2.6 | 0.00 | 0.35 | 0.31 | 81 | 1015.3 |
| 20260508030218 | 57 | 299 | 0.0 | 0.0 | 0.00 | 0.35 | 0.31 | 80 | 1015.3 |
| 20260508030125 | 57 | 299 | 0.0 | 0.0 | 0.00 | 0.35 | 0.31 | 80 | 1015.3 |
| 20260508030017 | 57 | 299 | 0.0 | 0.0 | 0.00 | 0.35 | 0.31 | 80 | 1015.2 |
| 20260508025924 | 57 | 299 | 0.0 | 0.0 | 0.00 | 0.35 | 0.31 | 80 | 1015.2 |
| 20260508025813 | 57 | 299 | 0.0 | 0.0 | 0.00 | 0.35 | 0.31 | 80 | 1015.3 |
| 20260508025721 | 57 | 299 | 0.0 | 0.0 | 0.00 | 0.35 | 0.31 | 80 | 1015.3 |
| 20260508025629 | 57 | 299 | 0.0 | 0.0 | 0.00 | 0.35 | 0.31 | 80 | 1015.3 |
| 20260508025516 | 57 | 299 | 0.0 | 0.0 | 0.00 | 0.35 | 0.31 | 80 | 1015.2 |
| 20260508025427 | 57 | 299 | 0.0 | 0.0 | 0.00 | 0.35 | 0.31 | 80 | 1015.2 |
| 20260508025315 | 58 | 299 | 0.0 | 1.7 | 0.00 | 0.35 | 0.31 | 80 | 1015.2 |
| 20260508025243 | 58 | 299 | 0.0 | 1.7 | 0.00 | 0.35 | 0.31 | 80 | 1015.2 |
| 20260508025130 | 58 | 299 | 0.0 | 1.7 | 0.00 | 0.35 | 0.31 | 80 | 1015.2 |
| 20260508025045 | 58 | 299 | 0.0 | 1.7 | 0.00 | 0.35 | 0.31 | 80 | 1015.2 |
| 20260508024818 | 58 | 299 | 0.0 | 1.7 | 0.00 | 0.35 | 0.31 | 79 | 1015.1 |
| 20260508024724 | 58 | 299 | 0.0 | 1.7 | 0.00 | 0.35 | 0.31 | 79 | 1015.1 |
| 20260508024612 | 58 | 299 | 0.0 | 1.7 | 0.00 | 0.35 | 0.31 | 79 | 1015.1 |
| 20260508024520 | 58 | 299 | 0.9 | 1.7 | 0.00 | 0.35 | 0.31 | 78 | 1015.1 |
| 20260508024429 | 58 | 299 | 0.9 | 1.7 | 0.00 | 0.35 | 0.31 | 78 | 1015.1 |
| 20260508024321 | 58 | 333 | 1.7 | 1.7 | 0.00 | 0.39 | 0.31 | 77 | 1015.1 |
| 20260508024228 | 58 | 333 | 0.9 | 1.7 | 0.00 | 0.39 | 0.31 | 77 | 1015.1 |
| 20260508024116 | 58 | 333 | 0.9 | 1.7 | 0.00 | 0.39 | 0.31 | 77 | 1015.0 |
| 20260508024024 | 58 | 333 | 1.7 | 1.7 | 0.00 | 0.39 | 0.31 | 77 | 1015.0 |
| 20260508023913 | 58 | 333 | 1.7 | 1.7 | 0.00 | 0.39 | 0.31 | 76 | 1015.1 |
| 20260508023824 | 58 | 333 | 1.7 | 1.7 | 0.00 | 0.39 | 0.31 | 76 | 1015.1 |
| 20260508023711 | 58 | 333 | 1.7 | 1.7 | 0.00 | 0.39 | 0.31 | 76 | 1015.1 |
| 20260508023638 | 58 | 333 | 0.9 | 1.7 | 0.00 | 0.39 | 0.31 | 76 | 1015.1 |
| 20260508023609 | 58 | 333 | 0.9 | 1.7 | 0.00 | 0.39 | 0.31 | 76 | 1015.1 |
| 20260508023321 | 59 | 333 | 0.9 | 1.7 | 0.00 | 0.39 | 0.31 | 76 | 1015.0 |
| 20260508023211 | 59 | 333 | 0.9 | 1.7 | 0.00 | 0.39 | 0.31 | 75 | 1014.9 |
| 20260508023118 | 59 | 333 | 0.0 | 0.9 | 0.00 | 0.39 | 0.31 | 75 | 1014.9 |
| 20260508023026 | 59 | 333 | 0.0 | 0.9 | 0.00 | 0.39 | 0.31 | 75 | 1014.9 |
| 20260508022913 | 59 | 333 | 0.0 | 0.9 | 0.00 | 0.39 | 0.31 | 75 | 1014.9 |
| 20260508022820 | 59 | 333 | 0.0 | 0.9 | 0.00 | 0.39 | 0.31 | 75 | 1015.0 |
| 20260508022748 | 59 | 333 | 0.0 | 0.9 | 0.00 | 0.39 | 0.31 | 75 | 1015.0 |
| 20260508022618 | 59 | 333 | 0.0 | 0.0 | 0.00 | 0.39 | 0.31 | 75 | 1015.0 |
| 20260508022527 | 59 | 333 | 0.0 | 0.0 | 0.00 | 0.39 | 0.31 | 75 | 1015.0 |
| 20260508022414 | 59 | 333 | 0.0 | 0.0 | 0.00 | 0.39 | 0.31 | 75 | 1015.0 |
| 20260508022341 | 59 | 333 | 0.0 | 0.0 | 0.00 | 0.39 | 0.31 | 75 | 1014.9 |
| 20260508022228 | 59 | 333 | 0.0 | 0.0 | 0.00 | 0.39 | 0.31 | 74 | 1014.9 |
| 20260508022116 | 59 | 333 | 0.0 | 0.0 | 0.00 | 0.39 | 0.31 | 75 | 1014.9 |
| 20260508022051 | 59 | 333 | 0.0 | 0.0 | 0.00 | 0.39 | 0.31 | 75 | 1014.9 |
| 20260508021843 | 59 | 333 | 0.0 | 0.0 | 0.00 | 0.39 | 0.31 | 74 | 1015.0 |
| 20260508021729 | 59 | 333 | 0.0 | 0.0 | 0.00 | 0.39 | 0.31 | 74 | 1014.9 |
| 20260508021617 | 59 | 333 | 0.0 | 0.0 | 0.00 | 0.39 | 0.31 | 74 | 1014.9 |
| 20260508021544 | 59 | 333 | 0.0 | 0.0 | 0.00 | 0.39 | 0.31 | 74 | 1014.9 |
| 20260508021413 | 59 | 333 | 0.0 | 0.0 | 0.00 | 0.39 | 0.31 | 74 | 1014.9 |
| 20260508021322 | 59 | 333 | 0.0 | 0.9 | 0.00 | 0.39 | 0.31 | 74 | 1014.9 |
| 20260508021230 | 59 | 333 | 0.0 | 1.7 | 0.00 | 0.39 | 0.31 | 74 | 1014.9 |
| 20260508021117 | 60 | 333 | 0.0 | 1.7 | 0.00 | 0.39 | 0.31 | 74 | 1014.7 |
| 20260508021025 | 60 | 333 | 0.0 | 1.7 | 0.00 | 0.39 | 0.31 | 74 | 1014.7 |
| 20260508020916 | 60 | 333 | 0.0 | 1.7 | 0.00 | 0.39 | 0.31 | 74 | 1014.7 |
| 20260508020824 | 60 | 333 | 0.0 | 1.7 | 0.00 | 0.39 | 0.31 | 74 | 1014.7 |
| 20260508020731 | 60 | 333 | 0.0 | 1.7 | 0.00 | 0.39 | 0.31 | 73 | 1014.8 |
| 20260508020700 | 60 | 333 | 0.9 | 1.7 | 0.00 | 0.39 | 0.31 | 73 | 1014.7 |
| 20260508020547 | 60 | 331 | 0.9 | 1.7 | 0.00 | 0.39 | 0.31 | 73 | 1014.7 |
| 20260508020321 | 60 | 329 | 0.9 | 1.7 | 0.00 | 0.39 | 0.31 | 73 | 1014.8 |
| 20260508020213 | 60 | 298 | 0.0 | 0.9 | 0.00 | 0.39 | 0.31 | 73 | 1014.9 |
| 20260508020120 | 60 | 294 | 0.0 | 0.9 | 0.00 | 0.39 | 0.31 | 73 | 1014.8 |
| 20260508020028 | 60 | 294 | 0.0 | 0.0 | 0.00 | 0.39 | 0.31 | 73 | 1014.8 |
| 20260508015915 | 60 | 294 | 0.0 | 0.0 | 0.00 | 0.39 | 0.31 | 73 | 1014.8 |
| 20260508015822 | 60 | 294 | 0.0 | 0.0 | 0.00 | 0.39 | 0.31 | 73 | 1014.8 |
| 20260508015713 | 60 | 294 | 0.0 | 0.0 | 0.00 | 0.39 | 0.31 | 73 | 1014.8 |
| 20260508015620 | 60 | 294 | 0.0 | 0.0 | 0.00 | 0.39 | 0.31 | 72 | 1014.8 |
| 20260508015527 | 60 | 294 | 0.0 | 0.0 | 0.00 | 0.39 | 0.31 | 72 | 1014.8 |
| 20260508015414 | 60 | 294 | 0.0 | 0.0 | 0.00 | 0.39 | 0.31 | 72 | 1014.8 |
| 20260508015320 | 60 | 297 | 0.0 | 0.0 | 0.00 | 0.39 | 0.31 | 72 | 1014.8 |
| 20260508015211 | 60 | 297 | 0.0 | 0.0 | 0.00 | 0.39 | 0.31 | 72 | 1014.8 |
| 20260508015138 | 60 | 297 | 0.0 | 0.0 | 0.00 | 0.39 | 0.31 | 72 | 1014.8 |
| 20260508015108 | 60 | 297 | 0.0 | 0.0 | 0.00 | 0.39 | 0.31 | 73 | 1014.6 |
| 20260508014820 | 60 | 297 | 0.0 | 0.0 | 0.00 | 0.39 | 0.31 | 73 | 1014.5 |
| 20260508014726 | 60 | 297 | 0.0 | 0.0 | 0.00 | 0.39 | 0.31 | 73 | 1014.5 |
| 20260508014619 | 60 | 297 | 0.0 | 0.0 | 0.00 | 0.39 | 0.31 | 73 | 1014.6 |
| 20260508014526 | 61 | 297 | 0.0 | 0.0 | 0.00 | 0.39 | 0.31 | 72 | 1014.6 |
| 20260508014413 | 61 | 297 | 0.0 | 0.0 | 0.00 | 0.39 | 0.31 | 72 | 1014.6 |
| 20260508014341 | 61 | 297 | 0.0 | 0.0 | 0.00 | 0.39 | 0.31 | 72 | 1014.6 |
| 20260508014227 | 61 | 297 | 0.0 | 0.0 | 0.00 | 0.39 | 0.31 | 72 | 1014.6 |
| 20260508014114 | 61 | 297 | 0.0 | 0.0 | 0.00 | 0.39 | 0.31 | 72 | 1014.5 |
| 20260508014026 | 61 | 297 | 0.0 | 0.0 | 0.00 | 0.39 | 0.31 | 72 | 1014.5 |
| 20260508013914 | 61 | 297 | 0.0 | 0.0 | 0.00 | 0.39 | 0.31 | 71 | 1014.6 |
| 20260508013820 | 61 | 297 | 0.0 | 0.0 | 0.00 | 0.39 | 0.31 | 71 | 1014.6 |
| 20260508013748 | 61 | 297 | 0.0 | 0.9 | 0.00 | 0.39 | 0.31 | 71 | 1014.6 |
| 20260508013614 | 61 | 297 | 0.0 | 1.7 | 0.00 | 0.39 | 0.31 | 71 | 1014.5 |
| 20260508013548 | 61 | 297 | 0.0 | 1.7 | 0.00 | 0.39 | 0.31 | 70 | 1014.5 |
| 20260508013341 | 61 | 297 | 0.0 | 1.7 | 0.00 | 0.39 | 0.31 | 70 | 1014.5 |
| 20260508013228 | 61 | 297 | 0.0 | 1.7 | 0.00 | 0.39 | 0.31 | 70 | 1014.5 |
| 20260508013137 | 61 | 297 | 0.0 | 1.7 | 0.00 | 0.39 | 0.31 | 70 | 1014.5 |
| 20260508013023 | 61 | 297 | 0.0 | 1.7 | 0.00 | 0.39 | 0.31 | 70 | 1014.5 |
| 20260508012951 | 61 | 297 | 0.9 | 1.7 | 0.00 | 0.39 | 0.31 | 70 | 1014.4 |
| 20260508012837 | 61 | 297 | 0.9 | 1.7 | 0.00 | 0.39 | 0.31 | 69 | 1014.6 |
| 20260508012727 | 61 | 16 | 0.0 | 1.7 | 0.00 | 0.39 | 0.31 | 69 | 1014.6 |
| 20260508012615 | 61 | 16 | 0.0 | 1.7 | 0.00 | 0.39 | 0.31 | 68 | 1014.4 |
| 20260508012523 | 61 | 16 | 0.0 | 1.7 | 0.00 | 0.39 | 0.31 | 68 | 1014.4 |
| 20260508012430 | 62 | 16 | 0.0 | 1.7 | 0.00 | 0.39 | 0.31 | 68 | 1014.5 |
| 20260508012317 | 62 | 16 | 0.0 | 1.7 | 0.00 | 0.39 | 0.31 | 68 | 1014.4 |
| 20260508012225 | 62 | 16 | 0.9 | 1.7 | 0.00 | 0.39 | 0.31 | 68 | 1014.4 |
| 20260508012157 | 62 | 16 | 0.9 | 1.7 | 0.00 | 0.39 | 0.31 | 68 | 1014.4 |
| 20260508012108 | 62 | 16 | 0.9 | 2.6 | 0.00 | 0.39 | 0.31 | 68 | 1014.4 |
| 20260508011820 | 62 | 16 | 0.9 | 2.6 | 0.00 | 0.39 | 0.31 | 68 | 1014.3 |
| 20260508011748 | 62 | 16 | 1.7 | 2.6 | 0.00 | 0.39 | 0.31 | 68 | 1014.3 |
| 20260508011613 | 62 | 16 | 1.7 | 2.6 | 0.00 | 0.39 | 0.31 | 67 | 1014.3 |
| 20260508011526 | 62 | 16 | 1.7 | 2.6 | 0.00 | 0.39 | 0.31 | 67 | 1014.3 |
| 20260508011413 | 62 | 16 | 1.7 | 2.6 | 0.00 | 0.39 | 0.31 | 67 | 1014.2 |
| 20260508011322 | 62 | 16 | 1.7 | 2.6 | 0.00 | 0.39 | 0.31 | 66 | 1014.2 |
| 20260508011230 | 62 | 16 | 1.7 | 2.6 | 0.00 | 0.39 | 0.31 | 66 | 1014.3 |
| 20260508011119 | 63 | 19 | 1.7 | 2.6 | 0.00 | 0.39 | 0.31 | 66 | 1014.1 |
| 20260508011026 | 63 | 11 | 1.7 | 2.6 | 0.00 | 0.39 | 0.31 | 66 | 1014.1 |
| 20260508010917 | 63 | 360 | 1.7 | 2.6 | 0.00 | 0.39 | 0.31 | 65 | 1014.1 |
| 20260508010824 | 63 | 360 | 1.7 | 2.6 | 0.00 | 0.39 | 0.31 | 65 | 1014.1 |
| 20260508010712 | 63 | 346 | 1.7 | 2.6 | 0.00 | 0.39 | 0.31 | 64 | 1014.2 |
| 20260508010619 | 63 | 334 | 1.7 | 2.6 | 0.00 | 0.39 | 0.31 | 64 | 1014.2 |
| 20260508010552 | 63 | 331 | 1.7 | 2.6 | 0.00 | 0.39 | 0.31 | 64 | 1014.2 |
| 20260508010325 | 63 | 347 | 1.7 | 2.6 | 0.00 | 0.39 | 0.31 | 63 | 1014.1 |
| 20260508010232 | 63 | 355 | 1.7 | 2.6 | 0.00 | 0.39 | 0.31 | 63 | 1014.1 |
| 20260508010118 | 63 | 355 | 1.7 | 2.6 | 0.00 | 0.39 | 0.31 | 62 | 1014.0 |
| 20260508010026 | 63 | 335 | 1.7 | 2.6 | 0.00 | 0.39 | 0.31 | 62 | 1014.0 |
| 20260508005912 | 63 | 332 | 1.7 | 2.6 | 0.00 | 0.39 | 0.31 | 62 | 1014.0 |
| 20260508005823 | 63 | 333 | 1.7 | 2.6 | 0.00 | 0.39 | 0.31 | 62 | 1014.0 |
| 20260508005712 | 63 | 329 | 1.7 | 2.6 | 0.00 | 0.39 | 0.31 | 63 | 1014.0 |
| 20260508005619 | 64 | 319 | 1.7 | 2.6 | 0.00 | 0.39 | 0.31 | 63 | 1014.0 |
| 20260508005526 | 64 | 322 | 0.9 | 2.6 | 0.00 | 0.39 | 0.31 | 62 | 1014.0 |
| 20260508005413 | 64 | 319 | 0.9 | 2.6 | 0.00 | 0.39 | 0.31 | 63 | 1014.1 |
| 20260508005325 | 64 | 319 | 1.7 | 2.6 | 0.00 | 0.39 | 0.31 | 63 | 1014.1 |
| 20260508005212 | 64 | 317 | 1.7 | 2.6 | 0.00 | 0.39 | 0.31 | 63 | 1014.2 |
| 20260508005120 | 64 | 314 | 0.9 | 2.6 | 0.00 | 0.39 | 0.31 | 63 | 1014.1 |
| 20260508005050 | 64 | 298 | 0.9 | 1.7 | 0.00 | 0.39 | 0.31 | 63 | 1014.1 |
| 20260508004824 | 64 | 298 | 1.7 | 1.7 | 0.00 | 0.39 | 0.31 | 63 | 1014.1 |
| 20260508004716 | 64 | 297 | 0.9 | 1.7 | 0.00 | 0.39 | 0.31 | 63 | 1014.2 |
| 20260508004624 | 64 | 297 | 0.9 | 1.7 | 0.00 | 0.39 | 0.31 | 63 | 1014.2 |
| 20260508004531 | 64 | 292 | 1.7 | 1.7 | 0.00 | 0.39 | 0.31 | 63 | 1014.3 |
| 20260508004419 | 64 | 298 | 0.9 | 1.7 | 0.00 | 0.39 | 0.31 | 63 | 1014.2 |
| 20260508004326 | 64 | 298 | 0.9 | 1.7 | 0.00 | 0.39 | 0.31 | 63 | 1014.2 |
| 20260508004216 | 64 | 289 | 0.9 | 1.7 | 0.00 | 0.39 | 0.31 | 62 | 1014.2 |
| 20260508004125 | 64 | 294 | 0.9 | 1.7 | 0.00 | 0.39 | 0.31 | 62 | 1014.2 |
| 20260508004011 | 64 | 294 | 0.9 | 1.7 | 0.00 | 0.39 | 0.31 | 61 | 1014.1 |
| 20260508003918 | 65 | 290 | 0.9 | 1.7 | 0.00 | 0.39 | 0.31 | 61 | 1014.2 |
| 20260508003825 | 65 | 291 | 0.9 | 2.6 | 0.00 | 0.39 | 0.31 | 61 | 1014.2 |
| 20260508003712 | 65 | 291 | 0.9 | 2.6 | 0.00 | 0.39 | 0.31 | 61 | 1014.2 |
| 20260508003624 | 65 | 293 | 0.9 | 2.6 | 0.00 | 0.39 | 0.31 | 61 | 1014.2 |
| 20260508003556 | 65 | 294 | 0.9 | 3.5 | 0.00 | 0.39 | 0.31 | 61 | 1014.1 |
| 20260508003330 | 65 | 311 | 0.9 | 3.5 | 0.00 | 0.39 | 0.31 | 61 | 1014.1 |
| 20260508003217 | 65 | 311 | 0.9 | 3.5 | 0.00 | 0.39 | 0.31 | 60 | 1014.0 |
| 20260508003129 | 65 | 311 | 0.9 | 4.3 | 0.00 | 0.39 | 0.31 | 60 | 1014.0 |
| 20260508003018 | 65 | 312 | 1.7 | 4.3 | 0.00 | 0.39 | 0.31 | 59 | 1014.1 |
| 20260508002925 | 65 | 316 | 1.7 | 4.3 | 0.00 | 0.39 | 0.31 | 59 | 1014.1 |
| 20260508002813 | 65 | 310 | 1.7 | 4.3 | 0.00 | 0.39 | 0.31 | 57 | 1014.1 |
| 20260508002740 | 65 | 321 | 2.6 | 4.3 | 0.00 | 0.39 | 0.31 | 57 | 1014.0 |
| 20260508002625 | 65 | 317 | 2.6 | 4.3 | 0.00 | 0.39 | 0.31 | 57 | 1014.0 |
| 20260508002517 | 65 | 308 | 2.6 | 4.3 | 0.00 | 0.39 | 0.31 | 57 | 1014.1 |
| 20260508002444 | 65 | 298 | 2.6 | 4.3 | 0.00 | 0.39 | 0.31 | 57 | 1014.1 |
| 20260508002350 | 65 | 321 | 2.6 | 4.3 | 0.00 | 0.39 | 0.31 | 57 | 1014.1 |
| 20260508002217 | 65 | 333 | 2.6 | 4.3 | 0.00 | 0.39 | 0.31 | 56 | 1014.0 |
| 20260508002145 | 65 | 309 | 2.6 | 3.5 | 0.00 | 0.39 | 0.31 | 56 | 1014.0 |
| 20260508002054 | 65 | 318 | 2.6 | 3.5 | 0.00 | 0.39 | 0.31 | 56 | 1013.9 |
| 20260508001812 | 66 | 299 | 1.7 | 3.5 | 0.00 | 0.39 | 0.31 | 56 | 1013.9 |
| 20260508001719 | 66 | 320 | 1.7 | 3.5 | 0.00 | 0.39 | 0.31 | 56 | 1014.0 |
| 20260508001645 | 66 | 326 | 1.7 | 3.5 | 0.00 | 0.39 | 0.31 | 55 | 1014.0 |
| 20260508001531 | 66 | 321 | 1.7 | 4.3 | 0.00 | 0.39 | 0.31 | 56 | 1013.9 |
| 20260508001418 | 66 | 302 | 2.6 | 4.3 | 0.00 | 0.39 | 0.31 | 55 | 1013.9 |
| 20260508001325 | 66 | 328 | 2.6 | 4.3 | 0.00 | 0.39 | 0.31 | 55 | 1013.9 |
| 20260508001217 | 66 | 320 | 1.7 | 4.3 | 0.00 | 0.39 | 0.31 | 55 | 1013.8 |
| 20260508001124 | 66 | 320 | 2.6 | 4.3 | 0.00 | 0.39 | 0.31 | 55 | 1013.8 |
| 20260508001032 | 66 | 337 | 2.6 | 4.3 | 0.00 | 0.39 | 0.31 | 55 | 1013.8 |
| 20260508000918 | 66 | 305 | 1.7 | 4.3 | 0.00 | 0.39 | 0.31 | 55 | 1013.8 |
| 20260508000845 | 66 | 312 | 2.6 | 4.3 | 0.00 | 0.39 | 0.31 | 55 | 1013.8 |
| 20260508000733 | 66 | 321 | 2.6 | 4.3 | 0.00 | 0.39 | 0.31 | 54 | 1013.8 |
| 20260508000623 | 66 | 318 | 1.7 | 3.5 | 0.00 | 0.39 | 0.31 | 54 | 1013.8 |
| 20260508000553 | 66 | 288 | 1.7 | 3.5 | 0.00 | 0.39 | 0.31 | 54 | 1013.8 |
| 20260508000327 | 66 | 303 | 1.7 | 5.2 | 0.00 | 0.39 | 0.31 | 54 | 1013.7 |
| 20260508000215 | 66 | 321 | 1.7 | 5.2 | 0.00 | 0.39 | 0.31 | 54 | 1013.7 |
| 20260508000122 | 67 | 332 | 2.6 | 7.0 | 0.00 | 0.39 | 0.31 | 54 | 1013.7 |
| 20260508000014 | 67 | 310 | 2.6 | 7.0 | 0.00 | 0.39 | 0.31 | 54 | 1013.7 |
| 20260507235922 | 67 | 305 | 2.6 | 7.0 | 0.00 | 0.39 | 0.31 | 54 | 1013.7 |
| 20260507235828 | 67 | 300 | 2.6 | 7.0 | 0.00 | 0.39 | 0.31 | 54 | 1013.6 |
| 20260507235715 | 67 | 327 | 2.6 | 7.0 | 0.00 | 0.39 | 0.31 | 53 | 1013.5 |
| 20260507235622 | 67 | 319 | 3.5 | 7.0 | 0.00 | 0.39 | 0.31 | 53 | 1013.5 |
| 20260507235535 | 67 | 311 | 4.3 | 7.0 | 0.00 | 0.39 | 0.31 | 54 | 1013.5 |
| 20260507235422 | 67 | 323 | 4.3 | 7.0 | 0.00 | 0.39 | 0.31 | 53 | 1013.5 |
| 20260507235329 | 67 | 333 | 3.5 | 7.0 | 0.00 | 0.39 | 0.31 | 53 | 1013.5 |
| 20260507235215 | 67 | 321 | 3.5 | 5.2 | 0.00 | 0.39 | 0.31 | 53 | 1013.4 |
| 20260507235124 | 67 | 325 | 3.5 | 5.2 | 0.00 | 0.39 | 0.31 | 53 | 1013.4 |
| 20260507235059 | 67 | 321 | 4.3 | 5.2 | 0.00 | 0.39 | 0.31 | 53 | 1013.3 |
| 20260507234833 | 67 | 340 | 3.5 | 5.2 | 0.00 | 0.39 | 0.31 | 53 | 1013.5 |
| 20260507234740 | 67 | 322 | 2.6 | 5.2 | 0.00 | 0.39 | 0.31 | 53 | 1013.5 |
| 20260507234646 | 67 | 342 | 3.5 | 5.2 | 0.00 | 0.39 | 0.31 | 53 | 1013.5 |
| 20260507234532 | 67 | 310 | 3.5 | 6.1 | 0.00 | 0.39 | 0.31 | 53 | 1013.5 |
| 20260507234418 | 67 | 297 | 3.5 | 5.2 | 0.00 | 0.46 | 0.31 | 53 | 1013.5 |
| 20260507234325 | 67 | 300 | 3.5 | 7.0 | 0.00 | 0.46 | 0.31 | 53 | 1013.5 |
| 20260507234233 | 67 | 319 | 3.5 | 7.0 | 0.00 | 0.46 | 0.31 | 53 | 1013.5 |
| 20260507234123 | 67 | 311 | 3.5 | 7.0 | 0.00 | 0.46 | 0.31 | 53 | 1013.5 |
| 20260507234030 | 67 | 290 | 2.6 | 7.0 | 0.00 | 0.46 | 0.31 | 53 | 1013.5 |
| 20260507233918 | 67 | 333 | 3.5 | 7.0 | 0.00 | 0.46 | 0.31 | 53 | 1013.5 |
| 20260507233825 | 67 | 298 | 3.5 | 7.0 | 0.00 | 0.46 | 0.31 | 53 | 1013.5 |
| 20260507233711 | 67 | 344 | 4.3 | 8.7 | 0.00 | 0.46 | 0.31 | 53 | 1013.5 |
| 20260507233622 | 67 | 320 | 4.3 | 8.7 | 0.00 | 0.46 | 0.31 | 52 | 1013.5 |
| 20260507233552 | 67 | 316 | 4.3 | 8.7 | 0.00 | 0.46 | 0.31 | 52 | 1013.5 |
| 20260507233325 | 67 | 321 | 4.3 | 8.7 | 0.00 | 0.46 | 0.31 | 52 | 1013.5 |
| 20260507233212 | 67 | 325 | 3.5 | 8.7 | 0.00 | 0.46 | 0.31 | 52 | 1013.4 |
| 20260507233120 | 67 | 315 | 3.5 | 8.7 | 0.00 | 0.46 | 0.31 | 52 | 1013.5 |
| 20260507233010 | 67 | 332 | 4.3 | 8.7 | 0.00 | 0.46 | 0.31 | 52 | 1013.4 |
| 20260507232918 | 67 | 308 | 4.3 | 8.7 | 0.00 | 0.46 | 0.31 | 52 | 1013.3 |
| 20260507232827 | 67 | 323 | 4.3 | 8.7 | 0.00 | 0.46 | 0.31 | 52 | 1013.3 |
| 20260507232714 | 67 | 344 | 4.3 | 7.0 | 0.00 | 0.46 | 0.31 | 52 | 1013.4 |
| 20260507232620 | 68 | 324 | 5.2 | 7.0 | 0.00 | 0.46 | 0.31 | 52 | 1013.4 |
| 20260507232513 | 68 | 319 | 5.2 | 7.0 | 0.00 | 0.46 | 0.31 | 52 | 1013.4 |
| 20260507232441 | 68 | 344 | 4.3 | 7.0 | 0.00 | 0.46 | 0.31 | 51 | 1013.4 |
| 20260507232327 | 68 | 325 | 3.5 | 7.8 | 0.00 | 0.46 | 0.31 | 51 | 1013.4 |
| 20260507232235 | 68 | 298 | 3.5 | 7.8 | 0.00 | 0.46 | 0.31 | 52 | 1013.5 |
| 20260507232122 | 68 | 320 | 3.5 | 8.7 | 0.00 | 0.46 | 0.31 | 52 | 1013.5 |
| 20260507232056 | 68 | 350 | 4.3 | 8.7 | 0.00 | 0.46 | 0.31 | 52 | 1013.5 |
| 20260507231830 | 68 | 344 | 4.3 | 8.7 | 0.00 | 0.46 | 0.31 | 51 | 1013.6 |
| 20260507231719 | 68 | 355 | 4.3 | 8.7 | 0.00 | 0.46 | 0.31 | 52 | 1013.6 |
| 20260507231625 | 68 | 329 | 5.2 | 8.7 | 0.00 | 0.46 | 0.31 | 52 | 1013.6 |
| 20260507231513 | 68 | 331 | 4.3 | 8.7 | 0.00 | 0.46 | 0.31 | 51 | 1013.5 |
| 20260507231420 | 68 | 355 | 3.5 | 8.7 | 0.00 | 0.46 | 0.31 | 51 | 1013.4 |
| 20260507231352 | 68 | 5 | 4.3 | 8.7 | 0.00 | 0.46 | 0.31 | 51 | 1013.4 |
| 20260507231217 | 68 | 303 | 6.1 | 8.7 | 0.00 | 0.46 | 0.31 | 51 | 1013.5 |
| 20260507231145 | 68 | 318 | 6.1 | 8.7 | 0.00 | 0.46 | 0.31 | 51 | 1013.5 |
| 20260507231012 | 68 | 334 | 5.2 | 8.7 | 0.00 | 0.46 | 0.31 | 51 | 1013.5 |
| 20260507230921 | 68 | 360 | 5.2 | 10.4 | 0.00 | 0.46 | 0.31 | 51 | 1013.6 |
| 20260507230829 | 69 | 322 | 4.3 | 10.4 | 0.00 | 0.46 | 0.31 | 50 | 1013.6 |
| 20260507230721 | 69 | 346 | 4.3 | 10.4 | 0.00 | 0.46 | 0.31 | 51 | 1013.7 |
| 20260507230628 | 69 | 313 | 5.2 | 10.4 | 0.00 | 0.46 | 0.31 | 50 | 1013.6 |
| 20260507230600 | 69 | 325 | 6.1 | 10.4 | 0.00 | 0.46 | 0.31 | 50 | 1013.6 |
| 20260507230313 | 69 | 315 | 7.0 | 10.4 | 0.00 | 0.46 | 0.31 | 50 | 1013.5 |
| 20260507230224 | 69 | 298 | 6.1 | 10.4 | 0.00 | 0.46 | 0.31 | 50 | 1013.5 |
| 20260507230113 | 69 | 324 | 7.0 | 10.4 | 0.00 | 0.46 | 0.31 | 52 | 1013.4 |
| 20260507230021 | 69 | 346 | 6.1 | 10.4 | 0.00 | 0.46 | 0.31 | 52 | 1013.5 |
| 20260507225928 | 69 | 278 | 3.5 | 9.6 | 0.00 | 0.46 | 0.31 | 52 | 1013.5 |
| 20260507225817 | 69 | 340 | 3.5 | 10.4 | 0.00 | 0.46 | 0.31 | 52 | 1013.4 |
| 20260507225744 | 69 | 302 | 4.3 | 11.3 | 0.00 | 0.46 | 0.31 | 52 | 1013.4 |
| 20260507225612 | 69 | 350 | 5.2 | 11.3 | 0.00 | 0.46 | 0.31 | 52 | 1013.4 |
| 20260507225521 | 69 | 327 | 5.2 | 11.3 | 0.00 | 0.46 | 0.31 | 52 | 1013.4 |
| 20260507225430 | 69 | 360 | 5.2 | 11.3 | 0.00 | 0.46 | 0.31 | 52 | 1013.4 |
| 20260507225317 | 69 | 347 | 5.2 | 11.3 | 0.00 | 0.46 | 0.31 | 51 | 1013.5 |
| 20260507225225 | 69 | 311 | 7.0 | 11.3 | 0.00 | 0.46 | 0.31 | 50 | 1013.5 |